Wetterdaten: Freitag, 24.03.2017
Datum Zeit Temp. Aussen Temp. o. S. +5cm Feuchte Auss BlattFeu 1 Luftdruck Regen Sonnenschein Regendauer Solar Windben Empfang
24.03.2017 00:00 7,7 C 7,2 C 5,6 C 87 % 0 lf 1021,0 hPa 0,0 l/m 0 min 0 min 0 W/m 18,8 km/h (3 Bft) 96,61 %
24.03.2017 00:02 7,6 C 7,2 C 5,6 C 87 % 0 lf 1021,0 hPa 0,0 l/m 0 min 0 min 0 W/m 18,8 km/h (3 Bft) 95,74 %
24.03.2017 00:04 7,6 C 7,2 C 5,6 C 87 % 0 lf 1021,0 hPa 0,0 l/m 0 min 0 min 0 W/m 14,6 km/h (3 Bft) 95,74 %
24.03.2017 00:06 7,6 C 7,2 C 5,0 C 87 % 0 lf 1021,0 hPa 0,0 l/m 0 min 0 min 0 W/m 14,6 km/h (3 Bft) 91,49 %
24.03.2017 00:10 7,6 C 7,2 C 5,0 C 87 % 0 lf 1021,1 hPa 0,0 l/m 0 min 0 min 0 W/m 20,9 km/h (4 Bft) 96,43 %
24.03.2017 00:12 7,5 C 7,2 C 5,0 C 88 % 0 lf 1021,0 hPa 0,0 l/m 0 min 0 min 0 W/m 16,7 km/h (3 Bft) 97,87 %
24.03.2017 00:14 7,5 C 7,2 C 5,0 C 88 % 0 lf 1021,1 hPa 0,0 l/m 0 min 0 min 0 W/m 18,8 km/h (3 Bft) 95,74 %
24.03.2017 00:16 7,5 C 7,2 C 5,0 C 88 % 0 lf 1021,1 hPa 0,0 l/m 0 min 0 min 5 W/m 18,8 km/h (3 Bft) 95,74 %
24.03.2017 00:18 7,4 C 7,2 C 5,0 C 88 % 0 lf 1021,1 hPa 0,0 l/m 0 min 0 min 5 W/m 14,6 km/h (3 Bft) 97,87 %
24.03.2017 00:20 7,4 C 6,7 C 5,0 C 88 % 0 lf 1021,1 hPa 0,0 l/m 0 min 0 min 5 W/m 14,6 km/h (3 Bft) 97,87 %
24.03.2017 00:22 7,4 C 6,7 C 5,0 C 88 % 0 lf 1021,2 hPa 0,0 l/m 0 min 0 min 5 W/m 16,7 km/h (3 Bft) 93,48 %
24.03.2017 00:24 7,4 C 6,7 C 5,0 C 88 % 0 lf 1021,2 hPa 0,0 l/m 0 min 0 min 0 W/m 23,0 km/h (4 Bft) 97,87 %
24.03.2017 00:26 7,3 C 7,2 C 5,0 C 88 % 0 lf 1021,2 hPa 0,0 l/m 0 min 0 min 0 W/m 14,6 km/h (3 Bft) 97,87 %
24.03.2017 00:28 7,3 C 6,7 C 5,0 C 88 % 0 lf 1021,1 hPa 0,0 l/m 0 min 0 min 0 W/m 12,6 km/h (3 Bft) 100,00 %
24.03.2017 00:30 7,3 C 6,7 C 5,0 C 88 % 0 lf 1021,1 hPa 0,0 l/m 0 min 0 min 0 W/m 18,8 km/h (3 Bft) 100,00 %
24.03.2017 00:32 7,3 C 6,7 C 5,0 C 88 % 0 lf 1021,1 hPa 0,0 l/m 0 min 0 min 0 W/m 23,0 km/h (4 Bft) 97,87 %
24.03.2017 00:34 7,3 C 6,7 C 5,0 C 88 % 0 lf 1021,2 hPa 0,0 l/m 0 min 0 min 0 W/m 25,1 km/h (4 Bft) 97,83 %
24.03.2017 00:36 7,2 C 6,7 C 5,0 C 88 % 0 lf 1021,2 hPa 0,0 l/m 0 min 0 min 0 W/m 23,0 km/h (4 Bft) 100,00 %
24.03.2017 00:38 7,2 C 6,7 C 5,0 C 88 % 0 lf 1021,2 hPa 0,0 l/m 0 min 0 min 0 W/m 14,6 km/h (3 Bft) 95,74 %
24.03.2017 00:40 7,2 C 6,7 C 5,0 C 89 % 0 lf 1021,2 hPa 0,0 l/m 0 min 0 min 0 W/m 16,7 km/h (3 Bft) 100,00 %
24.03.2017 00:42 7,2 C 6,7 C 5,0 C 88 % 0 lf 1021,2 hPa 0,0 l/m 0 min 0 min 0 W/m 14,6 km/h (3 Bft) 100,00 %
24.03.2017 00:44 7,1 C 6,7 C 5,0 C 88 % 0 lf 1021,3 hPa 0,0 l/m 0 min 0 min 0 W/m 20,9 km/h (4 Bft) 97,87 %
24.03.2017 00:46 7,1 C 6,7 C 5,0 C 89 % 0 lf 1021,3 hPa 0,0 l/m 0 min 0 min 0 W/m 18,8 km/h (3 Bft) 97,83 %
24.03.2017 00:48 7,1 C 6,7 C 4,4 C 89 % 0 lf 1021,3 hPa 0,0 l/m 0 min 0 min 0 W/m 12,6 km/h (3 Bft) 97,87 %
24.03.2017 00:50 7,1 C 6,7 C 5,0 C 89 % 0 lf 1021,4 hPa 0,0 l/m 0 min 0 min 0 W/m 18,8 km/h (3 Bft) 95,74 %
24.03.2017 00:52 7,1 C 6,7 C 5,0 C 89 % 0 lf 1021,4 hPa 0,0 l/m 0 min 0 min 0 W/m 20,9 km/h (4 Bft) 97,87 %
24.03.2017 00:54 7,1 C 6,7 C 4,4 C 89 % 0 lf 1021,4 hPa 0,0 l/m 0 min 0 min 0 W/m 16,7 km/h (3 Bft) 97,87 %
24.03.2017 00:56 7,0 C 6,7 C 4,4 C 89 % 0 lf 1021,4 hPa 0,0 l/m 0 min 0 min 0 W/m 20,9 km/h (4 Bft) 97,83 %
24.03.2017 00:58 7,0 C 6,7 C 4,4 C 89 % 0 lf 1021,4 hPa 0,0 l/m 0 min 0 min 0 W/m 18,8 km/h (3 Bft) 100,00 %
24.03.2017 01:00 6,9 C 6,7 C 4,4 C 89 % 0 lf 1021,4 hPa 0,0 l/m 0 min 0 min 0 W/m 12,6 km/h (3 Bft) 100,00 %
24.03.2017 01:02 6,9 C 6,7 C 4,4 C 89 % 0 lf 1021,4 hPa 0,0 l/m 0 min 0 min 0 W/m 25,1 km/h (4 Bft) 97,87 %
24.03.2017 01:04 6,9 C 6,7 C 4,4 C 89 % 0 lf 1021,3 hPa 0,0 l/m 0 min 0 min 0 W/m 20,9 km/h (4 Bft) 97,87 %
24.03.2017 01:06 6,9 C 6,7 C 4,4 C 89 % 0 lf 1021,3 hPa 0,0 l/m 0 min 0 min 0 W/m 25,1 km/h (4 Bft) 95,74 %
24.03.2017 01:08 6,9 C 6,7 C 4,4 C 89 % 0 lf 1021,4 hPa 0,0 l/m 0 min 0 min 0 W/m 25,1 km/h (4 Bft) 97,83 %
24.03.2017 01:10 6,9 C 6,7 C 4,4 C 90 % 0 lf 1021,5 hPa 0,0 l/m 0 min 0 min 0 W/m 16,7 km/h (3 Bft) 97,87 %
24.03.2017 01:12 6,8 C 6,7 C 4,4 C 90 % 0 lf 1021,5 hPa 0,0 l/m 0 min 0 min 0 W/m 20,9 km/h (4 Bft) 95,74 %
24.03.2017 01:14 6,8 C 6,7 C 4,4 C 90 % 0 lf 1021,5 hPa 0,0 l/m 0 min 0 min 0 W/m 23,0 km/h (4 Bft) 97,87 %
24.03.2017 01:16 6,8 C 6,7 C 4,4 C 90 % 0 lf 1021,5 hPa 0,0 l/m 0 min 0 min 0 W/m 20,9 km/h (4 Bft) 95,74 %
24.03.2017 01:18 6,8 C 6,7 C 4,4 C 90 % 0 lf 1021,6 hPa 0,0 l/m 0 min 0 min 0 W/m 18,8 km/h (3 Bft) 97,87 %
24.03.2017 01:20 6,8 C 6,1 C 4,4 C 90 % 0 lf 1021,6 hPa 0,0 l/m 0 min 0 min 0 W/m 20,9 km/h (4 Bft) 97,83 %
24.03.2017 01:22 6,8 C 6,1 C 4,4 C 90 % 0 lf 1021,7 hPa 0,0 l/m 0 min 0 min 0 W/m 14,6 km/h (3 Bft) 93,62 %
24.03.2017 01:24 6,8 C 6,1 C 4,4 C 90 % 0 lf 1021,7 hPa 0,0 l/m 0 min 0 min 0 W/m 20,9 km/h (4 Bft) 97,87 %
24.03.2017 01:26 6,7 C 6,1 C 4,4 C 90 % 0 lf 1021,7 hPa 0,0 l/m 0 min 0 min 0 W/m 20,9 km/h (4 Bft) 95,74 %
24.03.2017 01:28 6,7 C 6,1 C 4,4 C 90 % 0 lf 1021,8 hPa 0,0 l/m 0 min 0 min 0 W/m 20,9 km/h (4 Bft) 95,74 %
24.03.2017 01:30 6,7 C 6,1 C 4,4 C 90 % 0 lf 1021,8 hPa 0,0 l/m 0 min 0 min 0 W/m 18,8 km/h (3 Bft) 97,87 %
24.03.2017 01:32 6,7 C 6,1 C 4,4 C 90 % 0 lf 1021,9 hPa 0,0 l/m 0 min 0 min 0 W/m 16,7 km/h (3 Bft) 97,83 %
24.03.2017 01:34 6,7 C 6,1 C 4,4 C 90 % 0 lf 1022,0 hPa 0,0 l/m 0 min 0 min 0 W/m 18,8 km/h (3 Bft) 93,62 %
24.03.2017 01:36 6,7 C 6,1 C 4,4 C 90 % 0 lf 1022,0 hPa 0,0 l/m 0 min 0 min 0 W/m 14,6 km/h (3 Bft) 97,87 %
24.03.2017 01:38 6,7 C 6,1 C 4,4 C 90 % 0 lf 1022,0 hPa 0,0 l/m 0 min 0 min 0 W/m 14,6 km/h (3 Bft) 97,87 %
24.03.2017 01:40 6,6 C 6,1 C 4,4 C 90 % 0 lf 1022,1 hPa 0,0 l/m 0 min 0 min 0 W/m 16,7 km/h (3 Bft) 97,87 %
24.03.2017 01:42 6,6 C 6,1 C 4,4 C 90 % 0 lf 1022,1 hPa 0,0 l/m 0 min 0 min 0 W/m 10,5 km/h (2 Bft) 91,49 %
24.03.2017 01:44 6,6 C 6,1 C 4,4 C 91 % 0 lf 1022,2 hPa 0,0 l/m 0 min 0 min 0 W/m 14,6 km/h (3 Bft) 97,83 %
24.03.2017 01:46 6,6 C 6,1 C 3,9 C 91 % 0 lf 1022,2 hPa 0,0 l/m 0 min 0 min 0 W/m 18,8 km/h (3 Bft) 97,87 %
24.03.2017 01:48 6,6 C 6,1 C 3,9 C 91 % 0 lf 1022,2 hPa 0,0 l/m 0 min 0 min 0 W/m 14,6 km/h (3 Bft) 100,00 %
24.03.2017 01:50 6,6 C 6,1 C 3,9 C 91 % 0 lf 1022,3 hPa 0,0 l/m 0 min 0 min 0 W/m 14,6 km/h (3 Bft) 97,87 %
24.03.2017 01:52 6,5 C 6,1 C 3,9 C 91 % 0 lf 1022,4 hPa 0,0 l/m 0 min 0 min 0 W/m 16,7 km/h (3 Bft) 97,87 %
24.03.2017 01:54 6,5 C 6,1 C 4,4 C 91 % 0 lf 1022,4 hPa 0,0 l/m 0 min 0 min 0 W/m 14,6 km/h (3 Bft) 97,87 %
24.03.2017 01:56 6,5 C 6,1 C 3,9 C 91 % 0 lf 1022,5 hPa 0,0 l/m 0 min 0 min 0 W/m 16,7 km/h (3 Bft) 100,00 %
24.03.2017 01:58 6,5 C 6,1 C 3,9 C 91 % 0 lf 1022,6 hPa 0,0 l/m 0 min 0 min 0 W/m 16,7 km/h (3 Bft) 95,74 %
24.03.2017 02:00 6,4 C 6,1 C 3,9 C 91 % 0 lf 1022,7 hPa 0,0 l/m 0 min 0 min 0 W/m 14,6 km/h (3 Bft) 95,74 %
24.03.2017 02:02 6,4 C 6,1 C 3,9 C 91 % 0 lf 1022,7 hPa 0,0 l/m 0 min 0 min 0 W/m 10,5 km/h (2 Bft) 97,87 %
24.03.2017 02:04 6,4 C 6,1 C 3,9 C 91 % 0 lf 1022,7 hPa 0,0 l/m 0 min 0 min 0 W/m 14,6 km/h (3 Bft) 93,62 %
24.03.2017 02:06 6,4 C 6,1 C 3,9 C 91 % 0 lf 1022,7 hPa 0,0 l/m 0 min 0 min 0 W/m 10,5 km/h (2 Bft) 97,83 %
24.03.2017 02:08 6,4 C 6,1 C 3,9 C 91 % 0 lf 1022,6 hPa 0,0 l/m 0 min 0 min 0 W/m 10,5 km/h (2 Bft) 97,87 %
24.03.2017 02:10 6,4 C 6,1 C 3,9 C 91 % 0 lf 1022,7 hPa 0,0 l/m 0 min 0 min 0 W/m 14,6 km/h (3 Bft) 95,74 %
24.03.2017 02:12 6,4 C 6,1 C 3,9 C 91 % 0 lf 1022,7 hPa 0,0 l/m 0 min 0 min 0 W/m 14,6 km/h (3 Bft) 97,87 %
24.03.2017 02:14 6,4 C 6,1 C 3,9 C 91 % 0 lf 1022,6 hPa 0,0 l/m 0 min 0 min 0 W/m 16,7 km/h (3 Bft) 95,74 %
24.03.2017 02:16 6,4 C 6,1 C 3,9 C 91 % 0 lf 1022,6 hPa 0,0 l/m 0 min 0 min 0 W/m 18,8 km/h (3 Bft) 91,49 %
24.03.2017 02:18 6,3 C 6,1 C 3,9 C 91 % 0 lf 1022,6 hPa 0,0 l/m 0 min 0 min 0 W/m 16,7 km/h (3 Bft) 95,65 %
24.03.2017 02:20 6,3 C 6,1 C 3,9 C 91 % 0 lf 1022,6 hPa 0,0 l/m 0 min 0 min 0 W/m 20,9 km/h (4 Bft) 97,87 %
24.03.2017 02:22 6,3 C 6,1 C 4,4 C 91 % 0 lf 1022,6 hPa 0,0 l/m 0 min 0 min 0 W/m 23,0 km/h (4 Bft) 95,74 %
24.03.2017 02:24 6,3 C 6,1 C 4,4 C 91 % 0 lf 1022,6 hPa 0,0 l/m 0 min 0 min 0 W/m 16,7 km/h (3 Bft) 95,74 %
24.03.2017 02:26 6,3 C 6,1 C 3,9 C 91 % 0 lf 1022,6 hPa 0,0 l/m 0 min 0 min 0 W/m 20,9 km/h (4 Bft) 93,62 %
24.03.2017 02:28 6,3 C 6,1 C 4,4 C 91 % 0 lf 1022,7 hPa 0,0 l/m 0 min 0 min 0 W/m 23,0 km/h (4 Bft) 93,62 %
24.03.2017 02:30 6,3 C 6,1 C 4,4 C 91 % 0 lf 1022,8 hPa 0,0 l/m 0 min 0 min 0 W/m 18,8 km/h (3 Bft) 93,48 %
24.03.2017 02:32 6,3 C 6,1 C 4,4 C 91 % 0 lf 1022,7 hPa 0,0 l/m 0 min 0 min 0 W/m 18,8 km/h (3 Bft) 91,49 %
24.03.2017 02:34 6,2 C 6,1 C 4,4 C 91 % 0 lf 1022,8 hPa 0,0 l/m 0 min 0 min 0 W/m 18,8 km/h (3 Bft) 89,36 %
24.03.2017 02:36 6,2 C 6,1 C 4,4 C 92 % 0 lf 1022,7 hPa 0,0 l/m 0 min 0 min 0 W/m 14,6 km/h (3 Bft) 95,74 %
24.03.2017 02:38 6,2 C 6,1 C 4,4 C 92 % 0 lf 1022,7 hPa 0,0 l/m 0 min 0 min 0 W/m 20,9 km/h (4 Bft) 93,62 %
24.03.2017 02:40 6,2 C 6,1 C 4,4 C 92 % 0 lf 1022,8 hPa 0,0 l/m 0 min 0 min 0 W/m 14,6 km/h (3 Bft) 93,62 %
24.03.2017 02:42 6,2 C 6,1 C 3,9 C 92 % 0 lf 1022,8 hPa 0,0 l/m 0 min 0 min 0 W/m 18,8 km/h (3 Bft) 93,48 %
24.03.2017 02:44 6,2 C 6,1 C 3,9 C 92 % 0 lf 1022,8 hPa 0,0 l/m 0 min 0 min 0 W/m 20,9 km/h (4 Bft) 93,62 %
24.03.2017 02:46 6,2 C 6,1 C 3,9 C 92 % 0 lf 1022,9 hPa 0,0 l/m 0 min 0 min 0 W/m 18,8 km/h (3 Bft) 95,74 %
24.03.2017 02:48 6,2 C 6,1 C 3,9 C 92 % 0 lf 1022,9 hPa 0,0 l/m 0 min 0 min 0 W/m 16,7 km/h (3 Bft) 95,74 %
24.03.2017 02:50 6,2 C 6,1 C 3,9 C 92 % 0 lf 1022,9 hPa 0,0 l/m 0 min 0 min 0 W/m 14,6 km/h (3 Bft) 91,49 %
24.03.2017 02:52 6,2 C 6,1 C 3,9 C 92 % 0 lf 1022,9 hPa 0,0 l/m 0 min 0 min 0 W/m 18,8 km/h (3 Bft) 89,13 %
24.03.2017 02:54 6,2 C 6,1 C 3,9 C 92 % 0 lf 1022,9 hPa 0,0 l/m 0 min 0 min 0 W/m 18,8 km/h (3 Bft) 95,74 %
24.03.2017 02:56 6,2 C 6,1 C 3,9 C 92 % 0 lf 1022,8 hPa 0,0 l/m 0 min 0 min 0 W/m 16,7 km/h (3 Bft) 91,49 %
24.03.2017 02:58 6,2 C 6,1 C 3,9 C 92 % 0 lf 1022,9 hPa 0,0 l/m 0 min 0 min 0 W/m 16,7 km/h (3 Bft) 93,62 %
24.03.2017 03:00 6,1 C 6,1 C 3,9 C 92 % 0 lf 1022,9 hPa 0,0 l/m 0 min 0 min 0 W/m 18,8 km/h (3 Bft) 89,36 %
24.03.2017 03:02 6,1 C 6,1 C 3,9 C 92 % 0 lf 1022,9 hPa 0,0 l/m 0 min 0 min 0 W/m 14,6 km/h (3 Bft) 93,62 %
24.03.2017 03:04 6,1 C 6,1 C 3,9 C 92 % 0 lf 1022,9 hPa 0,0 l/m 0 min 0 min 0 W/m 18,8 km/h (3 Bft) 91,49 %
24.03.2017 03:06 6,1 C 5,6 C 3,9 C 92 % 0 lf 1022,9 hPa 0,0 l/m 0 min 0 min 0 W/m 14,6 km/h (3 Bft) 89,13 %
24.03.2017 03:08 6,1 C 5,6 C 3,9 C 92 % 0 lf 1022,9 hPa 0,0 l/m 0 min 0 min 0 W/m 16,7 km/h (3 Bft) 91,49 %
24.03.2017 03:10 6,1 C 5,6 C 3,9 C 92 % 0 lf 1022,9 hPa 0,0 l/m 0 min 0 min 0 W/m 16,7 km/h (3 Bft) 93,62 %
24.03.2017 03:12 6,1 C 5,6 C 3,9 C 92 % 0 lf 1023,0 hPa 0,0 l/m 0 min 0 min 0 W/m 18,8 km/h (3 Bft) 91,49 %
24.03.2017 03:14 6,1 C 6,1 C 3,9 C 92 % 0 lf 1023,1 hPa 0,0 l/m 0 min 0 min 0 W/m 20,9 km/h (4 Bft) 93,62 %
24.03.2017 03:16 6,1 C 6,1 C 3,9 C 92 % 0 lf 1023,1 hPa 0,0 l/m 0 min 0 min 0 W/m 16,7 km/h (3 Bft) 95,65 %
24.03.2017 03:18 6,1 C 6,1 C 3,9 C 92 % 0 lf 1023,2 hPa 0,0 l/m 0 min 0 min 0 W/m 16,7 km/h (3 Bft) 93,62 %
24.03.2017 03:20 6,1 C 6,1 C 3,9 C 92 % 0 lf 1023,2 hPa 0,0 l/m 0 min 0 min 0 W/m 12,6 km/h (3 Bft) 93,62 %
24.03.2017 03:22 6,0 C 5,6 C 3,9 C 92 % 0 lf 1023,2 hPa 0,0 l/m 0 min 0 min 0 W/m 16,7 km/h (3 Bft) 93,62 %
24.03.2017 03:24 6,0 C 5,6 C 3,9 C 92 % 0 lf 1023,3 hPa 0,0 l/m 0 min 0 min 0 W/m 16,7 km/h (3 Bft) 93,62 %
24.03.2017 03:26 6,0 C 5,6 C 3,9 C 92 % 0 lf 1023,4 hPa 0,0 l/m 0 min 0 min 0 W/m 12,6 km/h (3 Bft) 95,74 %
24.03.2017 03:28 6,0 C 6,1 C 3,3 C 92 % 0 lf 1023,4 hPa 0,0 l/m 0 min 0 min 0 W/m 10,5 km/h (2 Bft) 91,30 %
24.03.2017 03:30 6,0 C 5,6 C 3,9 C 92 % 0 lf 1023,6 hPa 0,0 l/m 0 min 0 min 0 W/m 10,5 km/h (2 Bft) 95,74 %
24.03.2017 03:32 5,9 C 5,6 C 3,3 C 92 % 0 lf 1023,6 hPa 0,0 l/m 0 min 0 min 0 W/m 23,0 km/h (4 Bft) 95,74 %
24.03.2017 03:34 5,9 C 5,6 C 3,3 C 93 % 0 lf 1023,6 hPa 0,0 l/m 0 min 0 min 0 W/m 18,8 km/h (3 Bft) 100,00 %
24.03.2017 03:36 5,9 C 5,6 C 3,3 C 93 % 0 lf 1023,5 hPa 0,0 l/m 0 min 0 min 0 W/m 14,6 km/h (3 Bft) 97,87 %
24.03.2017 03:38 5,9 C 5,6 C 3,3 C 93 % 0 lf 1023,6 hPa 0,0 l/m 0 min 0 min 0 W/m 14,6 km/h (3 Bft) 100,00 %
24.03.2017 03:40 5,9 C 5,6 C 3,3 C 93 % 0 lf 1023,5 hPa 0,0 l/m 0 min 0 min 0 W/m 14,6 km/h (3 Bft) 95,65 %
24.03.2017 03:42 5,9 C 5,6 C 3,3 C 93 % 0 lf 1023,5 hPa 0,0 l/m 0 min 0 min 0 W/m 14,6 km/h (3 Bft) 95,74 %
24.03.2017 03:44 5,9 C 5,6 C 3,3 C 93 % 0 lf 1023,5 hPa 0,0 l/m 0 min 0 min 0 W/m 14,6 km/h (3 Bft) 100,00 %
24.03.2017 03:46 5,8 C 5,6 C 3,3 C 93 % 0 lf 1023,5 hPa 0,0 l/m 0 min 0 min 0 W/m 18,8 km/h (3 Bft) 97,87 %
24.03.2017 03:48 5,8 C 5,6 C 3,3 C 93 % 0 lf 1023,6 hPa 0,0 l/m 0 min 0 min 0 W/m 14,6 km/h (3 Bft) 93,62 %
24.03.2017 03:50 5,8 C 5,6 C 3,3 C 93 % 0 lf 1023,5 hPa 0,0 l/m 0 min 0 min 0 W/m 16,7 km/h (3 Bft) 100,00 %
24.03.2017 03:52 5,8 C 5,6 C 3,3 C 92 % 0 lf 1023,6 hPa 0,0 l/m 0 min 0 min 0 W/m 14,6 km/h (3 Bft) 100,00 %
24.03.2017 03:54 5,8 C 5,6 C 3,3 C 92 % 0 lf 1023,6 hPa 0,0 l/m 0 min 0 min 0 W/m 14,6 km/h (3 Bft) 100,00 %
24.03.2017 03:56 5,8 C 5,6 C 3,3 C 92 % 0 lf 1023,5 hPa 0,0 l/m 0 min 0 min 0 W/m 14,6 km/h (3 Bft) 95,74 %
24.03.2017 03:58 5,7 C 5,0 C 3,3 C 92 % 0 lf 1023,4 hPa 0,0 l/m 0 min 0 min 0 W/m 12,6 km/h (3 Bft) 93,62 %
24.03.2017 04:00 5,7 C 5,0 C 3,3 C 92 % 1 lf 1023,4 hPa 0,0 l/m 0 min 0 min 0 W/m 16,7 km/h (3 Bft) 100,00 %
24.03.2017 04:02 5,7 C 5,0 C 3,3 C 92 % 1 lf 1023,4 hPa 0,0 l/m 0 min 0 min 0 W/m 14,6 km/h (3 Bft) 96,77 %
24.03.2017 04:04 5,7 C 5,0 C 3,3 C 93 % 1 lf 1023,3 hPa 0,0 l/m 0 min 0 min 0 W/m 18,8 km/h (3 Bft) 93,48 %
24.03.2017 04:06 5,7 C 5,6 C 3,3 C 93 % 1 lf 1023,4 hPa 0,0 l/m 0 min 0 min 0 W/m 18,8 km/h (3 Bft) 97,87 %
24.03.2017 04:08 5,7 C 5,6 C 3,3 C 93 % 1 lf 1023,4 hPa 0,0 l/m 0 min 0 min 0 W/m 16,7 km/h (3 Bft) 100,00 %
24.03.2017 04:10 5,7 C 5,6 C 3,3 C 93 % 1 lf 1023,4 hPa 0,0 l/m 0 min 0 min 5 W/m 18,8 km/h (3 Bft) 97,87 %
24.03.2017 04:12 5,6 C 5,6 C 3,3 C 93 % 1 lf 1023,4 hPa 0,0 l/m 0 min 0 min 5 W/m 16,7 km/h (3 Bft) 97,87 %
24.03.2017 04:14 5,6 C 5,6 C 3,3 C 93 % 1 lf 1023,4 hPa 0,0 l/m 0 min 0 min 5 W/m 16,7 km/h (3 Bft) 97,87 %
24.03.2017 04:16 5,6 C 5,6 C 3,3 C 93 % 1 lf 1023,4 hPa 0,0 l/m 0 min 0 min 5 W/m 10,5 km/h (2 Bft) 100,00 %
24.03.2017 04:18 5,6 C 5,6 C 3,3 C 93 % 1 lf 1023,4 hPa 0,0 l/m 0 min 0 min 5 W/m 18,8 km/h (3 Bft) 97,87 %
24.03.2017 04:20 5,6 C 5,6 C 3,3 C 93 % 1 lf 1023,4 hPa 0,0 l/m 0 min 0 min 5 W/m 14,6 km/h (3 Bft) 95,74 %
24.03.2017 04:22 5,6 C 5,6 C 3,3 C 93 % 1 lf 1023,4 hPa 0,0 l/m 0 min 0 min 5 W/m 18,8 km/h (3 Bft) 100,00 %
24.03.2017 04:24 5,6 C 5,6 C 3,3 C 93 % 0 lf 1023,4 hPa 0,0 l/m 0 min 0 min 5 W/m 8,4 km/h (2 Bft) 100,00 %
24.03.2017 04:26 5,6 C 5,6 C 3,3 C 93 % 1 lf 1023,5 hPa 0,0 l/m 0 min 0 min 2 W/m 18,8 km/h (3 Bft) 95,65 %
24.03.2017 04:28 5,6 C 5,6 C 3,3 C 93 % 1 lf 1023,5 hPa 0,0 l/m 0 min 0 min 0 W/m 20,9 km/h (4 Bft) 95,74 %
24.03.2017 04:30 5,6 C 5,6 C 3,3 C 93 % 0 lf 1023,5 hPa 0,0 l/m 0 min 0 min 0 W/m 20,9 km/h (4 Bft) 95,74 %
24.03.2017 04:32 5,6 C 5,6 C 3,9 C 93 % 0 lf 1023,5 hPa 0,0 l/m 0 min 0 min 0 W/m 23,0 km/h (4 Bft) 97,87 %
24.03.2017 04:34 5,6 C 5,6 C 3,9 C 93 % 0 lf 1023,5 hPa 0,0 l/m 0 min 0 min 2 W/m 14,6 km/h (3 Bft) 97,87 %
24.03.2017 04:36 5,6 C 5,6 C 3,3 C 93 % 0 lf 1023,5 hPa 0,0 l/m 0 min 0 min 0 W/m 18,8 km/h (3 Bft) 97,87 %
24.03.2017 04:38 5,6 C 5,6 C 3,3 C 93 % 0 lf 1023,6 hPa 0,0 l/m 0 min 0 min 1 W/m 18,8 km/h (3 Bft) 93,48 %
24.03.2017 04:40 5,6 C 5,6 C 3,3 C 93 % 0 lf 1023,6 hPa 0,0 l/m 0 min 0 min 5 W/m 16,7 km/h (3 Bft) 93,62 %
24.03.2017 04:42 5,6 C 5,6 C 3,3 C 93 % 0 lf 1023,6 hPa 0,0 l/m 0 min 0 min 5 W/m 20,9 km/h (4 Bft) 97,87 %
24.03.2017 04:44 5,6 C 5,6 C 3,3 C 93 % 0 lf 1023,7 hPa 0,0 l/m 0 min 0 min 5 W/m 20,9 km/h (4 Bft) 93,62 %
24.03.2017 04:46 5,6 C 5,6 C 3,3 C 93 % 0 lf 1023,6 hPa 0,0 l/m 0 min 0 min 5 W/m 14,6 km/h (3 Bft) 97,87 %
24.03.2017 04:48 5,6 C 5,6 C 3,3 C 93 % 0 lf 1023,6 hPa 0,0 l/m 0 min 0 min 5 W/m 12,6 km/h (3 Bft) 97,87 %
24.03.2017 04:50 5,6 C 5,6 C 3,3 C 93 % 0 lf 1023,6 hPa 0,0 l/m 0 min 0 min 5 W/m 16,7 km/h (3 Bft) 95,65 %
24.03.2017 04:52 5,6 C 5,6 C 3,3 C 93 % 0 lf 1023,6 hPa 0,0 l/m 0 min 0 min 5 W/m 14,6 km/h (3 Bft) 93,62 %
24.03.2017 04:54 5,6 C 5,6 C 3,3 C 93 % 0 lf 1023,7 hPa 0,0 l/m 0 min 0 min 5 W/m 20,9 km/h (4 Bft) 93,62 %
24.03.2017 04:56 5,6 C 5,6 C 3,9 C 93 % 0 lf 1023,8 hPa 0,0 l/m 0 min 0 min 5 W/m 16,7 km/h (3 Bft) 91,49 %
24.03.2017 04:58 5,6 C 5,6 C 3,9 C 93 % 0 lf 1023,8 hPa 0,0 l/m 0 min 0 min 5 W/m 23,0 km/h (4 Bft) 95,74 %
24.03.2017 05:00 5,6 C 6,1 C 3,9 C 93 % 0 lf 1024,0 hPa 0,0 l/m 0 min 0 min 5 W/m 16,7 km/h (3 Bft) 91,49 %
24.03.2017 05:02 5,6 C 6,1 C 3,9 C 94 % 0 lf 1023,9 hPa 0,0 l/m 0 min 0 min 5 W/m 14,6 km/h (3 Bft) 93,48 %
24.03.2017 05:04 5,6 C 6,1 C 3,9 C 94 % 0 lf 1024,0 hPa 0,0 l/m 0 min 0 min 5 W/m 18,8 km/h (3 Bft) 95,74 %
24.03.2017 05:06 5,6 C 5,6 C 3,9 C 94 % 0 lf 1024,0 hPa 0,0 l/m 0 min 0 min 5 W/m 16,7 km/h (3 Bft) 93,62 %
24.03.2017 05:08 5,6 C 5,6 C 3,9 C 94 % 0 lf 1024,0 hPa 0,0 l/m 0 min 0 min 5 W/m 16,7 km/h (3 Bft) 95,74 %
24.03.2017 05:10 5,6 C 5,6 C 3,9 C 94 % 0 lf 1024,0 hPa 0,0 l/m 0 min 0 min 5 W/m 23,0 km/h (4 Bft) 95,74 %
24.03.2017 05:12 5,6 C 5,6 C 3,9 C 94 % 0 lf 1024,1 hPa 0,0 l/m 0 min 0 min 5 W/m 14,6 km/h (3 Bft) 93,62 %
24.03.2017 05:14 5,6 C 5,6 C 3,9 C 94 % 0 lf 1024,0 hPa 0,0 l/m 0 min 0 min 5 W/m 14,6 km/h (3 Bft) 97,83 %
24.03.2017 05:16 5,6 C 5,6 C 3,3 C 94 % 0 lf 1024,1 hPa 0,0 l/m 0 min 0 min 5 W/m 20,9 km/h (4 Bft) 97,87 %
24.03.2017 05:18 5,6 C 5,6 C 3,3 C 94 % 0 lf 1024,0 hPa 0,0 l/m 0 min 0 min 5 W/m 16,7 km/h (3 Bft) 87,23 %
24.03.2017 05:20 5,6 C 5,6 C 3,3 C 94 % 0 lf 1023,9 hPa 0,0 l/m 0 min 0 min 5 W/m 16,7 km/h (3 Bft) 100,00 %
24.03.2017 05:22 5,5 C 5,6 C 3,3 C 94 % 0 lf 1023,9 hPa 0,0 l/m 0 min 0 min 5 W/m 16,7 km/h (3 Bft) 97,87 %
24.03.2017 05:24 5,5 C 5,0 C 3,3 C 94 % 0 lf 1023,9 hPa 0,0 l/m 0 min 0 min 5 W/m 16,7 km/h (3 Bft) 97,87 %
24.03.2017 05:26 5,5 C 5,0 C 3,3 C 94 % 0 lf 1023,9 hPa 0,0 l/m 0 min 0 min 5 W/m 23,0 km/h (4 Bft) 100,00 %
24.03.2017 05:28 5,5 C 5,0 C 3,3 C 94 % 0 lf 1024,0 hPa 0,0 l/m 0 min 0 min 5 W/m 20,9 km/h (4 Bft) 97,87 %
24.03.2017 05:30 5,4 C 5,6 C 3,3 C 94 % 0 lf 1024,0 hPa 0,0 l/m 0 min 0 min 5 W/m 14,6 km/h (3 Bft) 100,00 %
24.03.2017 05:32 5,4 C 5,0 C 3,3 C 94 % 1 lf 1024,1 hPa 0,0 l/m 0 min 0 min 5 W/m 14,6 km/h (3 Bft) 95,74 %
24.03.2017 05:34 5,4 C 5,0 C 3,3 C 94 % 1 lf 1024,1 hPa 0,0 l/m 0 min 0 min 5 W/m 14,6 km/h (3 Bft) 93,62 %
24.03.2017 05:36 5,4 C 5,0 C 3,3 C 94 % 1 lf 1024,0 hPa 0,0 l/m 0 min 0 min 5 W/m 16,7 km/h (3 Bft) 93,48 %
24.03.2017 05:38 5,4 C 5,0 C 3,3 C 94 % 1 lf 1023,9 hPa 0,0 l/m 0 min 0 min 5 W/m 20,9 km/h (4 Bft) 97,87 %
24.03.2017 05:40 5,4 C 5,0 C 3,3 C 94 % 0 lf 1023,9 hPa 0,0 l/m 0 min 0 min 5 W/m 23,0 km/h (4 Bft) 97,87 %
24.03.2017 05:42 5,3 C 5,0 C 3,3 C 94 % 1 lf 1023,9 hPa 0,0 l/m 0 min 0 min 5 W/m 20,9 km/h (4 Bft) 97,87 %
24.03.2017 05:44 5,3 C 5,0 C 3,3 C 94 % 0 lf 1023,9 hPa 0,0 l/m 0 min 0 min 5 W/m 18,8 km/h (3 Bft) 95,74 %
24.03.2017 05:46 5,3 C 5,0 C 3,3 C 94 % 0 lf 1024,0 hPa 0,0 l/m 0 min 0 min 5 W/m 23,0 km/h (4 Bft) 95,74 %
24.03.2017 05:48 5,3 C 5,0 C 3,3 C 94 % 0 lf 1023,9 hPa 0,0 l/m 0 min 0 min 5 W/m 18,8 km/h (3 Bft) 95,65 %
24.03.2017 05:50 5,3 C 5,0 C 3,3 C 94 % 0 lf 1024,0 hPa 0,0 l/m 0 min 0 min 5 W/m 20,9 km/h (4 Bft) 97,87 %
24.03.2017 05:52 5,3 C 5,0 C 3,3 C 94 % 1 lf 1024,0 hPa 0,0 l/m 0 min 0 min 5 W/m 18,8 km/h (3 Bft) 97,87 %
24.03.2017 05:54 5,3 C 5,0 C 3,3 C 94 % 1 lf 1023,9 hPa 0,0 l/m 0 min 0 min 5 W/m 16,7 km/h (3 Bft) 97,87 %
24.03.2017 05:56 5,2 C 5,0 C 3,3 C 94 % 1 lf 1024,1 hPa 0,0 l/m 0 min 0 min 5 W/m 23,0 km/h (4 Bft) 95,74 %
24.03.2017 05:58 5,2 C 5,0 C 3,3 C 94 % 1 lf 1024,0 hPa 0,0 l/m 0 min 0 min 5 W/m 18,8 km/h (3 Bft) 97,87 %
24.03.2017 06:00 5,2 C 5,0 C 3,3 C 94 % 1 lf 1024,0 hPa 0,0 l/m 0 min 0 min 5 W/m 25,1 km/h (4 Bft) 97,83 %
24.03.2017 06:02 5,2 C 5,0 C 3,3 C 94 % 1 lf 1024,0 hPa 0,0 l/m 0 min 0 min 5 W/m 23,0 km/h (4 Bft) 93,62 %
24.03.2017 06:04 5,2 C 5,0 C 3,3 C 94 % 0 lf 1024,0 hPa 0,0 l/m 0 min 0 min 5 W/m 25,1 km/h (4 Bft) 93,62 %
24.03.2017 06:06 5,2 C 5,0 C 3,3 C 94 % 0 lf 1024,1 hPa 0,0 l/m 0 min 0 min 5 W/m 20,9 km/h (4 Bft) 97,87 %
24.03.2017 06:08 5,2 C 5,6 C 3,3 C 94 % 0 lf 1024,1 hPa 0,0 l/m 0 min 0 min 5 W/m 25,1 km/h (4 Bft) 97,92 %
24.03.2017 06:10 5,2 C 5,0 C 3,3 C 94 % 0 lf 1024,0 hPa 0,0 l/m 0 min 0 min 5 W/m 25,1 km/h (4 Bft) 95,74 %
24.03.2017 06:12 5,2 C 5,0 C 3,3 C 94 % 0 lf 1024,0 hPa 0,0 l/m 0 min 0 min 5 W/m 20,9 km/h (4 Bft) 95,74 %
24.03.2017 06:14 5,2 C 5,0 C 3,3 C 94 % 0 lf 1024,0 hPa 0,0 l/m 0 min 0 min 5 W/m 31,4 km/h (5 Bft) 95,74 %
24.03.2017 06:16 5,2 C 5,0 C 3,3 C 94 % 0 lf 1024,1 hPa 0,0 l/m 0 min 0 min 6 W/m 14,6 km/h (3 Bft) 95,74 %
24.03.2017 06:18 5,2 C 5,6 C 3,3 C 94 % 0 lf 1024,1 hPa 0,0 l/m 0 min 0 min 7 W/m 18,8 km/h (3 Bft) 95,65 %
24.03.2017 06:20 5,2 C 5,6 C 3,3 C 94 % 0 lf 1024,0 hPa 0,0 l/m 0 min 0 min 7 W/m 23,0 km/h (4 Bft) 97,87 %
24.03.2017 06:22 5,2 C 5,6 C 3,3 C 94 % 0 lf 1024,0 hPa 0,0 l/m 0 min 0 min 9 W/m 27,2 km/h (4 Bft) 100,00 %
24.03.2017 06:24 5,2 C 5,6 C 3,3 C 94 % 0 lf 1024,0 hPa 0,0 l/m 0 min 0 min 9 W/m 23,0 km/h (4 Bft) 97,87 %
24.03.2017 06:26 5,2 C 5,6 C 3,3 C 94 % 0 lf 1024,0 hPa 0,0 l/m 0 min 0 min 9 W/m 20,9 km/h (4 Bft) 100,00 %
24.03.2017 06:28 5,2 C 5,6 C 3,3 C 94 % 0 lf 1024,1 hPa 0,0 l/m 0 min 0 min 9 W/m 27,2 km/h (4 Bft) 97,87 %
24.03.2017 06:30 5,2 C 5,6 C 3,3 C 94 % 0 lf 1024,1 hPa 0,0 l/m 0 min 0 min 10 W/m 29,3 km/h (5 Bft) 97,83 %
24.03.2017 06:32 5,2 C 5,0 C 3,3 C 94 % 0 lf 1024,1 hPa 0,0 l/m 0 min 0 min 11 W/m 27,2 km/h (4 Bft) 95,74 %
24.03.2017 06:34 5,2 C 5,0 C 3,3 C 94 % 0 lf 1024,1 hPa 0,0 l/m 0 min 0 min 12 W/m 23,0 km/h (4 Bft) 97,87 %
24.03.2017 06:36 5,2 C 5,0 C 3,3 C 94 % 0 lf 1024,1 hPa 0,0 l/m 0 min 0 min 13 W/m 16,7 km/h (3 Bft) 93,62 %
24.03.2017 06:38 5,2 C 5,0 C 3,3 C 94 % 0 lf 1024,2 hPa 0,0 l/m 0 min 0 min 15 W/m 20,9 km/h (4 Bft) 93,62 %
24.03.2017 06:40 5,2 C 5,0 C 3,3 C 94 % 0 lf 1024,2 hPa 0,0 l/m 0 min 0 min 17 W/m 16,7 km/h (3 Bft) 95,74 %
24.03.2017 06:42 5,2 C 5,0 C 3,3 C 94 % 0 lf 1024,3 hPa 0,0 l/m 0 min 0 min 19 W/m 23,0 km/h (4 Bft) 93,48 %
24.03.2017 06:44 5,2 C 5,0 C 3,3 C 94 % 0 lf 1024,2 hPa 0,0 l/m 2 min 0 min 22 W/m 16,7 km/h (3 Bft) 91,49 %
24.03.2017 06:46 5,2 C 5,0 C 3,3 C 94 % 0 lf 1024,3 hPa 0,0 l/m 2 min 0 min 24 W/m 18,8 km/h (3 Bft) 95,74 %
24.03.2017 06:48 5,2 C 5,0 C 3,3 C 94 % 0 lf 1024,3 hPa 0,0 l/m 2 min 0 min 26 W/m 18,8 km/h (3 Bft) 95,74 %
24.03.2017 06:50 5,2 C 5,6 C 3,3 C 94 % 0 lf 1024,4 hPa 0,0 l/m 2 min 0 min 29 W/m 18,8 km/h (3 Bft) 91,49 %
24.03.2017 06:52 5,2 C 5,6 C 3,3 C 94 % 0 lf 1024,4 hPa 0,0 l/m 2 min 0 min 32 W/m 16,7 km/h (3 Bft) 95,74 %
24.03.2017 06:54 5,2 C 5,6 C 3,3 C 94 % 0 lf 1024,3 hPa 0,0 l/m 2 min 0 min 33 W/m 18,8 km/h (3 Bft) 95,65 %
24.03.2017 06:56 5,2 C 5,6 C 3,3 C 94 % 0 lf 1024,3 hPa 0,0 l/m 2 min 0 min 36 W/m 23,0 km/h (4 Bft) 91,49 %
24.03.2017 06:58 5,2 C 5,6 C 3,9 C 94 % 0 lf 1024,3 hPa 0,0 l/m 2 min 0 min 40 W/m 23,0 km/h (4 Bft) 91,49 %
24.03.2017 07:00 5,2 C 5,6 C 3,3 C 94 % 0 lf 1024,3 hPa 0,0 l/m 2 min 0 min 43 W/m 16,7 km/h (3 Bft) 97,87 %
24.03.2017 07:02 5,2 C 5,6 C 3,9 C 94 % 0 lf 1024,3 hPa 0,0 l/m 2 min 0 min 48 W/m 20,9 km/h (4 Bft) 89,36 %
24.03.2017 07:04 5,2 C 5,6 C 3,9 C 94 % 0 lf 1024,3 hPa 0,0 l/m 2 min 0 min 51 W/m 18,8 km/h (3 Bft) 95,74 %
24.03.2017 07:06 5,2 C 6,1 C 3,9 C 94 % 0 lf 1024,4 hPa 0,0 l/m 2 min 0 min 55 W/m 20,9 km/h (4 Bft) 91,30 %
24.03.2017 07:08 5,2 C 6,1 C 3,9 C 94 % 0 lf 1024,3 hPa 0,0 l/m 2 min 0 min 61 W/m 23,0 km/h (4 Bft) 91,49 %
24.03.2017 07:10 5,2 C 6,1 C 3,9 C 94 % 0 lf 1024,3 hPa 0,0 l/m 2 min 0 min 65 W/m 16,7 km/h (3 Bft) 93,62 %
24.03.2017 07:12 5,3 C 6,1 C 3,9 C 94 % 0 lf 1024,3 hPa 0,0 l/m 2 min 0 min 69 W/m 16,7 km/h (3 Bft) 93,62 %
24.03.2017 07:14 5,3 C 6,1 C 3,9 C 94 % 0 lf 1024,4 hPa 0,0 l/m 2 min 0 min 74 W/m 14,6 km/h (3 Bft) 89,36 %
24.03.2017 07:16 5,3 C 6,1 C 3,9 C 94 % 0 lf 1024,4 hPa 0,0 l/m 2 min 0 min 83 W/m 20,9 km/h (4 Bft) 95,74 %
24.03.2017 07:18 5,3 C 6,1 C 3,9 C 94 % 0 lf 1024,5 hPa 0,0 l/m 2 min 0 min 89 W/m 20,9 km/h (4 Bft) 95,65 %
24.03.2017 07:20 5,3 C 6,1 C 4,4 C 94 % 0 lf 1024,4 hPa 0,0 l/m 2 min 0 min 93 W/m 27,2 km/h (4 Bft) 95,74 %
24.03.2017 07:22 5,3 C 6,7 C 4,4 C 94 % 0 lf 1024,4 hPa 0,0 l/m 2 min 0 min 95 W/m 14,6 km/h (3 Bft) 95,74 %
24.03.2017 07:24 5,4 C 6,7 C 4,4 C 94 % 0 lf 1024,4 hPa 0,0 l/m 2 min 0 min 93 W/m 23,0 km/h (4 Bft) 91,67 %
24.03.2017 07:26 5,4 C 6,1 C 4,4 C 94 % 0 lf 1024,5 hPa 0,0 l/m 2 min 0 min 92 W/m 27,2 km/h (4 Bft) 95,74 %
24.03.2017 07:28 5,4 C 6,7 C 4,4 C 94 % 0 lf 1024,6 hPa 0,0 l/m 2 min 0 min 102 W/m 23,0 km/h (4 Bft) 95,74 %
24.03.2017 07:30 5,4 C 6,7 C 4,4 C 94 % 0 lf 1024,6 hPa 0,0 l/m 2 min 0 min 111 W/m 20,9 km/h (4 Bft) 95,74 %
24.03.2017 07:32 5,4 C 6,7 C 4,4 C 94 % 0 lf 1024,6 hPa 0,0 l/m 2 min 0 min 119 W/m 18,8 km/h (3 Bft) 95,65 %
24.03.2017 07:34 5,5 C 6,7 C 4,4 C 94 % 0 lf 1024,7 hPa 0,0 l/m 2 min 0 min 119 W/m 20,9 km/h (4 Bft) 93,62 %
24.03.2017 07:36 5,5 C 6,7 C 4,4 C 94 % 0 lf 1024,7 hPa 0,0 l/m 2 min 0 min 125 W/m 29,3 km/h (5 Bft) 95,74 %
24.03.2017 07:38 5,6 C 6,7 C 4,4 C 94 % 0 lf 1024,7 hPa 0,0 l/m 2 min 0 min 126 W/m 18,8 km/h (3 Bft) 97,87 %
24.03.2017 07:40 5,6 C 6,7 C 4,4 C 94 % 0 lf 1024,7 hPa 0,0 l/m 2 min 0 min 133 W/m 23,0 km/h (4 Bft) 95,74 %
24.03.2017 07:42 5,6 C 7,8 C 4,4 C 94 % 0 lf 1024,6 hPa 0,0 l/m 2 min 0 min 141 W/m 27,2 km/h (4 Bft) 95,74 %
24.03.2017 07:44 5,6 C 8,3 C 4,4 C 94 % 0 lf 1024,5 hPa 0,0 l/m 2 min 0 min 141 W/m 23,0 km/h (4 Bft) 97,83 %
24.03.2017 07:46 5,6 C 9,4 C 4,4 C 94 % 0 lf 1024,4 hPa 0,0 l/m 2 min 0 min 136 W/m 23,0 km/h (4 Bft) 95,74 %
24.03.2017 07:48 5,7 C 9,4 C 4,4 C 94 % 0 lf 1024,4 hPa 0,0 l/m 2 min 0 min 141 W/m 20,9 km/h (4 Bft) 97,87 %
24.03.2017 07:50 5,7 C 10,0 C 5,0 C 94 % 0 lf 1024,4 hPa 0,0 l/m 2 min 0 min 156 W/m 20,9 km/h (4 Bft) 95,83 %
24.03.2017 07:52 5,8 C 9,4 C 5,0 C 94 % 0 lf 1024,4 hPa 0,0 l/m 2 min 0 min 165 W/m 29,3 km/h (5 Bft) 93,62 %
24.03.2017 07:54 5,8 C 10,0 C 5,0 C 94 % 0 lf 1024,5 hPa 0,0 l/m 2 min 0 min 157 W/m 33,5 km/h (5 Bft) 95,74 %
24.03.2017 07:56 5,8 C 10,0 C 5,0 C 94 % 0 lf 1024,5 hPa 0,0 l/m 2 min 0 min 152 W/m 23,0 km/h (4 Bft) 100,00 %
24.03.2017 07:58 5,9 C 9,4 C 5,0 C 94 % 0 lf 1024,7 hPa 0,0 l/m 2 min 0 min 145 W/m 29,3 km/h (5 Bft) 95,74 %
24.03.2017 08:00 6,0 C 9,4 C 5,0 C 94 % 0 lf 1024,7 hPa 0,0 l/m 2 min 0 min 138 W/m 29,3 km/h (5 Bft) 97,87 %
24.03.2017 08:02 6,0 C 8,9 C 5,0 C 94 % 0 lf 1024,7 hPa 0,0 l/m 2 min 0 min 136 W/m 27,2 km/h (4 Bft) 95,65 %
24.03.2017 08:04 6,1 C 8,9 C 5,6 C 94 % 0 lf 1024,8 hPa 0,0 l/m 2 min 0 min 134 W/m 31,4 km/h (5 Bft) 100,00 %
24.03.2017 08:06 6,1 C 8,3 C 5,6 C 94 % 0 lf 1024,9 hPa 0,0 l/m 2 min 0 min 135 W/m 37,7 km/h (5 Bft) 100,00 %
24.03.2017 08:08 6,2 C 8,3 C 5,6 C 94 % 0 lf 1025,0 hPa 0,0 l/m 2 min 0 min 127 W/m 33,5 km/h (5 Bft) 97,87 %
24.03.2017 08:10 6,2 C 8,3 C 5,6 C 93 % 0 lf 1025,0 hPa 0,0 l/m 2 min 0 min 133 W/m 25,1 km/h (4 Bft) 100,00 %
24.03.2017 08:12 6,2 C 8,3 C 5,6 C 93 % 0 lf 1025,1 hPa 0,0 l/m 2 min 0 min 135 W/m 31,4 km/h (5 Bft) 100,00 %
24.03.2017 08:14 6,3 C 8,3 C 5,6 C 93 % 0 lf 1025,1 hPa 0,0 l/m 2 min 0 min 139 W/m 27,2 km/h (4 Bft) 100,00 %
24.03.2017 08:16 6,3 C 8,3 C 5,6 C 93 % 0 lf 1025,0 hPa 0,0 l/m 0 min 0 min 134 W/m 29,3 km/h (5 Bft) 100,00 %
24.03.2017 08:18 6,4 C 8,3 C 5,6 C 92 % 0 lf 1025,0 hPa 0,0 l/m 0 min 0 min 128 W/m 29,3 km/h (5 Bft) 100,00 %
24.03.2017 08:20 6,4 C 8,3 C 5,6 C 92 % 0 lf 1025,0 hPa 0,0 l/m 0 min 0 min 128 W/m 29,3 km/h (5 Bft) 100,00 %
24.03.2017 08:22 6,4 C 7,8 C 5,6 C 92 % 0 lf 1025,0 hPa 0,0 l/m 0 min 0 min 129 W/m 29,3 km/h (5 Bft) 97,87 %
24.03.2017 08:24 6,4 C 7,8 C 6,1 C 92 % 0 lf 1025,0 hPa 0,0 l/m 0 min 0 min 136 W/m 20,9 km/h (4 Bft) 93,62 %
24.03.2017 08:26 6,5 C 7,8 C 6,1 C 91 % 0 lf 1024,9 hPa 0,0 l/m 0 min 0 min 143 W/m 20,9 km/h (4 Bft) 93,48 %
24.03.2017 08:28 6,6 C 8,3 C 6,1 C 91 % 0 lf 1024,9 hPa 0,0 l/m 2 min 0 min 171 W/m 23,0 km/h (4 Bft) 97,87 %
24.03.2017 08:30 6,6 C 8,9 C 6,1 C 91 % 0 lf 1024,9 hPa 0,0 l/m 2 min 0 min 165 W/m 27,2 km/h (4 Bft) 95,74 %
24.03.2017 08:32 6,6 C 8,9 C 6,1 C 91 % 0 lf 1025,0 hPa 0,0 l/m 2 min 0 min 162 W/m 23,0 km/h (4 Bft) 95,74 %
24.03.2017 08:34 6,7 C 8,9 C 6,7 C 90 % 0 lf 1024,9 hPa 0,0 l/m 2 min 0 min 170 W/m 23,0 km/h (4 Bft) 95,74 %
24.03.2017 08:36 6,7 C 8,9 C 6,7 C 90 % 0 lf 1025,0 hPa 0,0 l/m 2 min 0 min 174 W/m 18,8 km/h (3 Bft) 93,62 %
24.03.2017 08:38 6,7 C 9,4 C 6,7 C 90 % 0 lf 1025,1 hPa 0,0 l/m 2 min 0 min 172 W/m 23,0 km/h (4 Bft) 97,83 %
24.03.2017 08:40 6,8 C 9,4 C 6,7 C 90 % 0 lf 1025,1 hPa 0,0 l/m 2 min 0 min 200 W/m 25,1 km/h (4 Bft) 95,74 %
24.03.2017 08:42 6,8 C 9,4 C 7,2 C 90 % 0 lf 1025,2 hPa 0,0 l/m 2 min 0 min 191 W/m 18,8 km/h (3 Bft) 91,49 %
24.03.2017 08:44 6,9 C 8,9 C 7,2 C 90 % 0 lf 1025,6 hPa 0,0 l/m 2 min 0 min 192 W/m 23,0 km/h (4 Bft) 91,49 %
24.03.2017 08:46 6,9 C 8,9 C 7,2 C 89 % 0 lf 1026,0 hPa 0,0 l/m 2 min 0 min 199 W/m 16,7 km/h (3 Bft) 95,74 %
24.03.2017 08:48 7,0 C 9,4 C 7,2 C 89 % 0 lf 1026,5 hPa 0,0 l/m 2 min 0 min 206 W/m 16,7 km/h (3 Bft) 95,74 %
24.03.2017 08:50 7,0 C 9,4 C 7,8 C 89 % 0 lf 1027,0 hPa 0,0 l/m 2 min 0 min 217 W/m 18,8 km/h (3 Bft) 95,65 %
24.03.2017 08:52 7,1 C 9,4 C 7,8 C 89 % 0 lf 1027,0 hPa 0,0 l/m 2 min 0 min 235 W/m 18,8 km/h (3 Bft) 91,49 %
24.03.2017 08:54 7,1 C 9,4 C 7,8 C 88 % 0 lf 1026,9 hPa 0,0 l/m 2 min 0 min 246 W/m 18,8 km/h (3 Bft) 93,62 %
24.03.2017 08:56 7,2 C 9,4 C 8,3 C 88 % 0 lf 1026,7 hPa 0,0 l/m 2 min 0 min 248 W/m 18,8 km/h (3 Bft) 93,62 %
24.03.2017 08:58 7,2 C 10,0 C 8,3 C 88 % 0 lf 1026,3 hPa 0,0 l/m 2 min 0 min 245 W/m 14,6 km/h (3 Bft) 95,74 %
24.03.2017 09:00 7,3 C 10,0 C 8,3 C 88 % 0 lf 1026,0 hPa 0,0 l/m 2 min 0 min 244 W/m 18,8 km/h (3 Bft) 95,65 %
24.03.2017 09:02 7,4 C 10,0 C 8,3 C 88 % 0 lf 1025,9 hPa 0,0 l/m 2 min 0 min 236 W/m 23,0 km/h (4 Bft) 93,62 %
24.03.2017 09:04 7,4 C 10,0 C 8,9 C 87 % 0 lf 1026,0 hPa 0,0 l/m 2 min 0 min 284 W/m 20,9 km/h (4 Bft) 91,49 %
24.03.2017 09:06 7,5 C 11,1 C 9,4 C 87 % 0 lf 1026,1 hPa 0,0 l/m 2 min 0 min 297 W/m 18,8 km/h (3 Bft) 95,74 %
24.03.2017 09:08 7,6 C 10,6 C 9,4 C 87 % 0 lf 1026,2 hPa 0,0 l/m 2 min 0 min 260 W/m 16,7 km/h (3 Bft) 95,74 %
24.03.2017 09:10 7,7 C 11,1 C 9,4 C 87 % 0 lf 1026,3 hPa 0,0 l/m 2 min 0 min 287 W/m 20,9 km/h (4 Bft) 93,62 %
24.03.2017 09:12 7,8 C 11,7 C 10,0 C 86 % 0 lf 1026,4 hPa 0,0 l/m 2 min 0 min 385 W/m 18,8 km/h (3 Bft) 91,30 %
24.03.2017 09:14 7,8 C 11,1 C 10,0 C 86 % 0 lf 1026,4 hPa 0,0 l/m 2 min 0 min 441 W/m 18,8 km/h (3 Bft) 93,62 %
24.03.2017 09:16 7,9 C 11,7 C 10,0 C 86 % 0 lf 1026,4 hPa 0,0 l/m 2 min 0 min 280 W/m 20,9 km/h (4 Bft) 93,62 %
24.03.2017 09:18 8,1 C 11,7 C 10,6 C 86 % 0 lf 1026,4 hPa 0,0 l/m 2 min 0 min 415 W/m 27,2 km/h (4 Bft) 100,00 %
24.03.2017 09:20 8,1 C 12,2 C 10,6 C 85 % 0 lf 1026,4 hPa 0,0 l/m 2 min 0 min 352 W/m 23,0 km/h (4 Bft) 97,87 %
24.03.2017 09:22 8,2 C 12,8 C 10,6 C 85 % 0 lf 1026,5 hPa 0,0 l/m 2 min 0 min 350 W/m 23,0 km/h (4 Bft) 100,00 %
24.03.2017 09:24 8,3 C 13,3 C 10,6 C 85 % 0 lf 1026,5 hPa 0,0 l/m 2 min 0 min 319 W/m 16,7 km/h (3 Bft) 100,00 %
24.03.2017 09:26 8,4 C 12,2 C 10,6 C 84 % 0 lf 1026,7 hPa 0,0 l/m 2 min 0 min 288 W/m 29,3 km/h (5 Bft) 100,00 %
24.03.2017 09:28 8,5 C 12,2 C 10,6 C 84 % 0 lf 1026,7 hPa 0,0 l/m 2 min 0 min 284 W/m 16,7 km/h (3 Bft) 100,00 %
24.03.2017 09:30 8,6 C 12,2 C 10,6 C 83 % 0 lf 1026,6 hPa 0,0 l/m 2 min 0 min 286 W/m 29,3 km/h (5 Bft) 97,83 %
24.03.2017 09:32 8,6 C 11,7 C 10,0 C 82 % 0 lf 1026,5 hPa 0,0 l/m 2 min 0 min 304 W/m 29,3 km/h (5 Bft) 97,87 %
24.03.2017 09:34 8,7 C 11,7 C 10,0 C 82 % 0 lf 1026,4 hPa 0,0 l/m 2 min 0 min 292 W/m 23,0 km/h (4 Bft) 100,00 %
24.03.2017 09:36 8,8 C 11,7 C 10,0 C 81 % 0 lf 1026,2 hPa 0,0 l/m 2 min 0 min 272 W/m 31,4 km/h (5 Bft) 100,00 %
24.03.2017 09:38 8,8 C 11,7 C 10,0 C 81 % 0 lf 1026,2 hPa 0,0 l/m 2 min 0 min 285 W/m 27,2 km/h (4 Bft) 100,00 %
24.03.2017 09:40 8,9 C 11,7 C 9,4 C 80 % 0 lf 1026,5 hPa 0,0 l/m 2 min 0 min 230 W/m 31,4 km/h (5 Bft) 97,87 %
24.03.2017 09:42 8,9 C 10,6 C 9,4 C 80 % 0 lf 1026,8 hPa 0,0 l/m 0 min 0 min 214 W/m 23,0 km/h (4 Bft) 97,83 %
24.03.2017 09:44 8,9 C 10,6 C 10,0 C 79 % 0 lf 1027,1 hPa 0,0 l/m 2 min 0 min 270 W/m 20,9 km/h (4 Bft) 100,00 %
24.03.2017 09:46 8,9 C 11,1 C 10,0 C 79 % 0 lf 1027,3 hPa 0,0 l/m 2 min 0 min 295 W/m 16,7 km/h (3 Bft) 100,00 %
24.03.2017 09:48 8,9 C 11,1 C 10,6 C 79 % 0 lf 1027,4 hPa 0,0 l/m 2 min 0 min 297 W/m 20,9 km/h (4 Bft) 100,00 %
24.03.2017 09:50 9,0 C 11,7 C 10,6 C 79 % 0 lf 1027,4 hPa 0,0 l/m 2 min 0 min 321 W/m 18,8 km/h (3 Bft) 97,87 %
24.03.2017 09:52 9,0 C 12,2 C 11,1 C 79 % 0 lf 1027,4 hPa 0,0 l/m 2 min 0 min 340 W/m 14,6 km/h (3 Bft) 97,87 %
24.03.2017 09:54 9,1 C 13,9 C 11,7 C 79 % 0 lf 1027,3 hPa 0,0 l/m 2 min 0 min 341 W/m 20,9 km/h (4 Bft) 100,00 %
24.03.2017 09:56 9,2 C 13,3 C 11,7 C 79 % 0 lf 1027,4 hPa 0,0 l/m 2 min 0 min 352 W/m 20,9 km/h (4 Bft) 100,00 %
24.03.2017 09:58 9,2 C 12,8 C 11,7 C 79 % 0 lf 1027,5 hPa 0,0 l/m 2 min 0 min 327 W/m 16,7 km/h (3 Bft) 93,62 %
24.03.2017 10:00 9,3 C 11,7 C 11,7 C 79 % 0 lf 1027,7 hPa 0,0 l/m 2 min 0 min 293 W/m 20,9 km/h (4 Bft) 95,74 %
24.03.2017 10:02 9,3 C 11,7 C 11,7 C 77 % 0 lf 1027,7 hPa 0,0 l/m 2 min 0 min 305 W/m 20,9 km/h (4 Bft) 93,62 %
24.03.2017 10:04 9,4 C 12,8 C 11,7 C 77 % 0 lf 1027,5 hPa 0,0 l/m 2 min 0 min 336 W/m 27,2 km/h (4 Bft) 97,87 %
24.03.2017 10:06 9,4 C 12,8 C 11,7 C 77 % 0 lf 1027,3 hPa 0,0 l/m 2 min 0 min 308 W/m 23,0 km/h (4 Bft) 95,65 %
24.03.2017 10:08 9,5 C 13,3 C 11,7 C 77 % 0 lf 1027,3 hPa 0,0 l/m 2 min 0 min 327 W/m 16,7 km/h (3 Bft) 95,74 %
24.03.2017 10:10 9,6 C 15,6 C 12,8 C 77 % 0 lf 1027,2 hPa 0,0 l/m 2 min 0 min 327 W/m 18,8 km/h (3 Bft) 97,87 %
24.03.2017 10:12 9,7 C 17,2 C 13,9 C 76 % 0 lf 1027,2 hPa 0,0 l/m 2 min 0 min 396 W/m 18,8 km/h (3 Bft) 89,36 %
24.03.2017 10:14 9,8 C 18,3 C 14,4 C 77 % 0 lf 1027,2 hPa 0,0 l/m 2 min 0 min 582 W/m 14,6 km/h (3 Bft) 95,74 %
24.03.2017 10:16 9,9 C 18,3 C 14,4 C 76 % 0 lf 1027,3 hPa 0,0 l/m 2 min 0 min 544 W/m 27,2 km/h (4 Bft) 93,48 %
24.03.2017 10:18 10,0 C 17,8 C 13,9 C 75 % 0 lf 1027,4 hPa 0,0 l/m 2 min 0 min 438 W/m 20,9 km/h (4 Bft) 95,74 %
24.03.2017 10:20 10,2 C 16,7 C 13,9 C 75 % 0 lf 1027,3 hPa 0,0 l/m 2 min 0 min 530 W/m 20,9 km/h (4 Bft) 95,74 %
24.03.2017 10:22 10,3 C 16,1 C 13,9 C 74 % 0 lf 1027,3 hPa 0,0 l/m 2 min 0 min 436 W/m 20,9 km/h (4 Bft) 93,62 %
24.03.2017 10:24 10,3 C 15,6 C 14,4 C 73 % 0 lf 1027,2 hPa 0,0 l/m 2 min 0 min 468 W/m 20,9 km/h (4 Bft) 93,62 %
24.03.2017 10:26 10,4 C 14,4 C 13,9 C 72 % 0 lf 1027,3 hPa 0,0 l/m 2 min 0 min 412 W/m 27,2 km/h (4 Bft) 91,49 %
24.03.2017 10:28 10,5 C 15,0 C 13,9 C 72 % 0 lf 1027,2 hPa 0,0 l/m 2 min 0 min 434 W/m 16,7 km/h (3 Bft) 93,48 %
24.03.2017 10:30 10,6 C 15,6 C 13,9 C 71 % 0 lf 1027,2 hPa 0,0 l/m 2 min 0 min 539 W/m 23,0 km/h (4 Bft) 93,62 %
24.03.2017 10:32 10,6 C 15,0 C 13,9 C 71 % 0 lf 1027,3 hPa 0,0 l/m 2 min 0 min 776 W/m 25,1 km/h (4 Bft) 95,74 %
24.03.2017 10:34 10,6 C 15,0 C 14,4 C 71 % 0 lf 1027,2 hPa 0,0 l/m 2 min 0 min 589 W/m 18,8 km/h (3 Bft) 91,49 %
24.03.2017 10:36 10,7 C 16,7 C 15,0 C 72 % 0 lf 1027,3 hPa 0,0 l/m 2 min 0 min 592 W/m 12,6 km/h (3 Bft) 93,62 %
24.03.2017 10:38 10,7 C 16,1 C 15,0 C 71 % 0 lf 1027,3 hPa 0,0 l/m 2 min 0 min 595 W/m 18,8 km/h (3 Bft) 93,62 %
24.03.2017 10:40 10,8 C 17,2 C 15,0 C 72 % 0 lf 1027,4 hPa 0,0 l/m 2 min 0 min 598 W/m 18,8 km/h (3 Bft) 95,65 %
24.03.2017 10:42 10,8 C 18,9 C 14,4 C 72 % 0 lf 1027,4 hPa 0,0 l/m 2 min 0 min 559 W/m 18,8 km/h (3 Bft) 91,49 %
24.03.2017 10:44 10,9 C 16,1 C 14,4 C 71 % 0 lf 1027,4 hPa 0,0 l/m 2 min 0 min 482 W/m 18,8 km/h (3 Bft) 93,62 %
24.03.2017 10:46 10,9 C 17,2 C 13,9 C 71 % 0 lf 1027,4 hPa 0,0 l/m 2 min 0 min 543 W/m 23,0 km/h (4 Bft) 97,87 %
24.03.2017 10:48 11,0 C 18,9 C 14,4 C 71 % 0 lf 1027,4 hPa 0,0 l/m 2 min 0 min 609 W/m 16,7 km/h (3 Bft) 95,74 %
24.03.2017 10:50 11,1 C 20,0 C 14,4 C 71 % 0 lf 1027,4 hPa 0,0 l/m 2 min 0 min 612 W/m 12,6 km/h (3 Bft) 95,74 %
24.03.2017 10:52 11,1 C 18,3 C 15,0 C 71 % 0 lf 1027,4 hPa 0,0 l/m 2 min 0 min 614 W/m 12,6 km/h (3 Bft) 95,65 %
24.03.2017 10:54 11,2 C 18,9 C 15,6 C 71 % 0 lf 1027,4 hPa 0,0 l/m 2 min 0 min 617 W/m 16,7 km/h (3 Bft) 97,87 %
24.03.2017 10:56 11,2 C 20,0 C 15,0 C 70 % 0 lf 1027,4 hPa 0,0 l/m 2 min 0 min 619 W/m 20,9 km/h (4 Bft) 97,87 %
24.03.2017 10:58 11,3 C 21,1 C 15,6 C 71 % 0 lf 1027,4 hPa 0,0 l/m 2 min 0 min 622 W/m 25,1 km/h (4 Bft) 97,87 %
24.03.2017 11:00 11,4 C 21,1 C 15,0 C 71 % 0 lf 1027,4 hPa 0,0 l/m 2 min 0 min 624 W/m 23,0 km/h (4 Bft) 97,87 %
24.03.2017 11:02 11,4 C 21,1 C 14,4 C 70 % 0 lf 1027,5 hPa 0,0 l/m 2 min 0 min 627 W/m 12,6 km/h (3 Bft) 95,74 %
24.03.2017 11:04 11,4 C 20,6 C 14,4 C 70 % 0 lf 1027,4 hPa 0,0 l/m 2 min 0 min 629 W/m 18,8 km/h (3 Bft) 93,48 %
24.03.2017 11:06 11,5 C 21,7 C 15,0 C 71 % 0 lf 1027,4 hPa 0,0 l/m 2 min 0 min 632 W/m 18,8 km/h (3 Bft) 95,74 %
24.03.2017 11:08 11,6 C 21,7 C 15,0 C 71 % 0 lf 1027,4 hPa 0,0 l/m 2 min 0 min 634 W/m 16,7 km/h (3 Bft) 97,87 %
24.03.2017 11:10 11,7 C 20,6 C 15,6 C 71 % 0 lf 1027,4 hPa 0,0 l/m 2 min 0 min 636 W/m 23,0 km/h (4 Bft) 97,87 %
24.03.2017 11:12 11,8 C 18,9 C 16,1 C 69 % 0 lf 1027,4 hPa 0,0 l/m 2 min 0 min 638 W/m 20,9 km/h (4 Bft) 93,62 %
24.03.2017 11:14 11,9 C 18,9 C 16,1 C 69 % 0 lf 1027,4 hPa 0,0 l/m 2 min 0 min 641 W/m 20,9 km/h (4 Bft) 89,36 %
24.03.2017 11:16 12,0 C 19,4 C 15,6 C 69 % 0 lf 1027,4 hPa 0,0 l/m 2 min 0 min 643 W/m 25,1 km/h (4 Bft) 95,65 %
24.03.2017 11:18 12,1 C 20,0 C 15,0 C 69 % 0 lf 1027,5 hPa 0,0 l/m 2 min 0 min 645 W/m 14,6 km/h (3 Bft) 95,74 %
24.03.2017 11:20 12,2 C 21,1 C 14,4 C 69 % 0 lf 1027,5 hPa 0,0 l/m 2 min 0 min 647 W/m 18,8 km/h (3 Bft) 93,62 %
24.03.2017 11:22 12,2 C 20,6 C 13,9 C 68 % 0 lf 1027,5 hPa 0,0 l/m 2 min 0 min 649 W/m 27,2 km/h (4 Bft) 95,74 %
24.03.2017 11:24 12,2 C 18,3 C 13,3 C 68 % 0 lf 1027,5 hPa 0,0 l/m 2 min 0 min 651 W/m 18,8 km/h (3 Bft) 93,48 %
24.03.2017 11:26 12,2 C 19,4 C 12,8 C 68 % 0 lf 1027,5 hPa 0,0 l/m 2 min 0 min 653 W/m 16,7 km/h (3 Bft) 95,74 %
24.03.2017 11:28 12,3 C 21,1 C 13,3 C 69 % 0 lf 1027,5 hPa 0,0 l/m 2 min 0 min 654 W/m 16,7 km/h (3 Bft) 95,65 %
24.03.2017 11:30 12,4 C 20,6 C 13,3 C 68 % 0 lf 1027,5 hPa 0,0 l/m 2 min 0 min 656 W/m 14,6 km/h (3 Bft) 95,74 %
24.03.2017 11:32 12,4 C 19,4 C 13,3 C 68 % 0 lf 1027,5 hPa 0,0 l/m 2 min 0 min 658 W/m 20,9 km/h (4 Bft) 91,49 %
24.03.2017 11:34 12,5 C 17,2 C 13,3 C 67 % 0 lf 1027,5 hPa 0,0 l/m 2 min 0 min 660 W/m 20,9 km/h (4 Bft) 95,74 %
24.03.2017 11:36 12,5 C 18,9 C 12,8 C 67 % 0 lf 1027,5 hPa 0,0 l/m 2 min 0 min 878 W/m 16,7 km/h (3 Bft) 95,74 %
24.03.2017 11:38 12,6 C 18,3 C 12,8 C 67 % 0 lf 1027,5 hPa 0,0 l/m 2 min 0 min 687 W/m 16,7 km/h (3 Bft) 95,74 %
24.03.2017 11:40 12,6 C 18,9 C 12,8 C 67 % 0 lf 1027,5 hPa 0,0 l/m 2 min 0 min 599 W/m 14,6 km/h (3 Bft) 95,65 %
24.03.2017 11:42 12,6 C 18,9 C 12,8 C 67 % 0 lf 1027,5 hPa 0,0 l/m 2 min 0 min 648 W/m 27,2 km/h (4 Bft) 95,74 %
24.03.2017 11:44 12,7 C 19,4 C 13,3 C 67 % 0 lf 1027,5 hPa 0,0 l/m 2 min 0 min 609 W/m 23,0 km/h (4 Bft) 95,74 %
24.03.2017 11:46 12,7 C 20,0 C 12,8 C 68 % 0 lf 1027,5 hPa 0,0 l/m 2 min 0 min 564 W/m 27,2 km/h (4 Bft) 93,62 %
24.03.2017 11:48 12,7 C 18,9 C 12,2 C 67 % 0 lf 1027,5 hPa 0,0 l/m 2 min 0 min 400 W/m 23,0 km/h (4 Bft) 91,49 %
24.03.2017 11:50 12,7 C 18,3 C 12,8 C 67 % 0 lf 1027,6 hPa 0,0 l/m 2 min 0 min 341 W/m 20,9 km/h (4 Bft) 97,83 %
24.03.2017 11:52 12,7 C 18,9 C 12,8 C 67 % 0 lf 1027,5 hPa 0,0 l/m 2 min 0 min 564 W/m 20,9 km/h (4 Bft) 95,74 %
24.03.2017 11:54 12,6 C 17,8 C 12,8 C 66 % 0 lf 1027,5 hPa 0,0 l/m 2 min 0 min 599 W/m 27,2 km/h (4 Bft) 97,87 %
24.03.2017 11:56 12,6 C 18,3 C 13,3 C 66 % 0 lf 1027,5 hPa 0,0 l/m 2 min 0 min 660 W/m 25,1 km/h (4 Bft) 95,74 %
24.03.2017 11:58 12,7 C 17,2 C 13,3 C 66 % 0 lf 1027,5 hPa 0,0 l/m 2 min 0 min 672 W/m 29,3 km/h (5 Bft) 100,00 %
24.03.2017 12:00 12,7 C 16,1 C 12,8 C 66 % 0 lf 1027,6 hPa 0,0 l/m 2 min 0 min 407 W/m 18,8 km/h (3 Bft) 100,00 %
24.03.2017 12:02 12,7 C 15,6 C 12,8 C 66 % 0 lf 1027,5 hPa 0,0 l/m 2 min 0 min 329 W/m 14,6 km/h (3 Bft) 95,65 %
24.03.2017 12:04 12,6 C 16,1 C 12,2 C 67 % 0 lf 1027,5 hPa 0,0 l/m 0 min 0 min 309 W/m 31,4 km/h (5 Bft) 95,74 %
24.03.2017 12:06 12,6 C 16,7 C 12,8 C 67 % 0 lf 1027,5 hPa 0,0 l/m 0 min 0 min 301 W/m 18,8 km/h (3 Bft) 95,74 %
24.03.2017 12:08 12,6 C 17,2 C 12,2 C 67 % 0 lf 1027,5 hPa 0,0 l/m 2 min 0 min 452 W/m 18,8 km/h (3 Bft) 97,92 %
24.03.2017 12:10 12,6 C 18,3 C 12,2 C 68 % 0 lf 1027,5 hPa 0,0 l/m 2 min 0 min 514 W/m 27,2 km/h (4 Bft) 95,74 %
24.03.2017 12:12 12,6 C 18,3 C 12,2 C 67 % 0 lf 1027,5 hPa 0,0 l/m 2 min 0 min 381 W/m 16,7 km/h (3 Bft) 97,87 %
24.03.2017 12:14 12,6 C 18,9 C 12,2 C 68 % 0 lf 1027,5 hPa 0,0 l/m 2 min 0 min 414 W/m 16,7 km/h (3 Bft) 100,00 %
24.03.2017 12:16 12,6 C 17,8 C 12,2 C 67 % 0 lf 1027,5 hPa 0,0 l/m 2 min 0 min 541 W/m 14,6 km/h (3 Bft) 100,00 %
24.03.2017 12:18 12,6 C 19,4 C 12,2 C 67 % 0 lf 1027,5 hPa 0,0 l/m 2 min 0 min 589 W/m 23,0 km/h (4 Bft) 100,00 %
24.03.2017 12:20 12,7 C 18,9 C 12,8 C 68 % 0 lf 1027,5 hPa 0,0 l/m 2 min 0 min 502 W/m 27,2 km/h (4 Bft) 100,00 %
24.03.2017 12:22 12,7 C 18,3 C 12,2 C 67 % 0 lf 1027,6 hPa 0,0 l/m 2 min 0 min 365 W/m 25,1 km/h (4 Bft) 97,87 %
24.03.2017 12:24 12,7 C 18,9 C 12,2 C 67 % 0 lf 1027,6 hPa 0,0 l/m 2 min 0 min 430 W/m 20,9 km/h (4 Bft) 100,00 %
24.03.2017 12:26 12,7 C 18,9 C 12,2 C 68 % 0 lf 1027,6 hPa 0,0 l/m 2 min 0 min 563 W/m 18,8 km/h (3 Bft) 100,00 %
24.03.2017 12:28 12,7 C 20,0 C 12,2 C 67 % 0 lf 1027,6 hPa 0,0 l/m 2 min 0 min 619 W/m 18,8 km/h (3 Bft) 100,00 %
24.03.2017 12:30 12,7 C 19,4 C 12,2 C 67 % 0 lf 1027,6 hPa 0,0 l/m 2 min 0 min 481 W/m 18,8 km/h (3 Bft) 95,74 %
24.03.2017 12:32 12,7 C 18,9 C 12,2 C 68 % 0 lf 1027,6 hPa 0,0 l/m 2 min 0 min 349 W/m 25,1 km/h (4 Bft) 97,87 %
24.03.2017 12:34 12,7 C 18,9 C 12,2 C 67 % 0 lf 1027,6 hPa 0,0 l/m 2 min 0 min 466 W/m 23,0 km/h (4 Bft) 97,87 %
24.03.2017 12:36 12,7 C 20,0 C 12,2 C 68 % 0 lf 1027,6 hPa 0,0 l/m 2 min 0 min 549 W/m 14,6 km/h (3 Bft) 100,00 %
24.03.2017 12:38 12,8 C 19,4 C 12,8 C 67 % 0 lf 1027,6 hPa 0,0 l/m 2 min 0 min 544 W/m 18,8 km/h (3 Bft) 97,83 %
24.03.2017 12:40 12,8 C 20,0 C 12,8 C 67 % 0 lf 1027,6 hPa 0,0 l/m 2 min 0 min 569 W/m 16,7 km/h (3 Bft) 100,00 %
24.03.2017 12:42 12,9 C 21,1 C 12,8 C 68 % 0 lf 1027,6 hPa 0,0 l/m 2 min 0 min 580 W/m 20,9 km/h (4 Bft) 97,87 %
24.03.2017 12:44 13,1 C 22,2 C 12,8 C 67 % 0 lf 1027,7 hPa 0,0 l/m 2 min 0 min 602 W/m 23,0 km/h (4 Bft) 97,87 %
24.03.2017 12:46 13,2 C 22,8 C 12,8 C 67 % 0 lf 1027,6 hPa 0,0 l/m 2 min 0 min 612 W/m 18,8 km/h (3 Bft) 95,74 %
24.03.2017 12:48 13,2 C 21,7 C 12,8 C 66 % 0 lf 1027,6 hPa 0,0 l/m 2 min 0 min 616 W/m 14,6 km/h (3 Bft) 95,65 %
24.03.2017 12:50 13,3 C 21,7 C 13,3 C 67 % 0 lf 1027,6 hPa 0,0 l/m 2 min 0 min 588 W/m 16,7 km/h (3 Bft) 97,87 %
24.03.2017 12:52 13,5 C 22,8 C 13,3 C 67 % 0 lf 1027,6 hPa 0,0 l/m 2 min 0 min 677 W/m 25,1 km/h (4 Bft) 95,74 %
24.03.2017 12:54 13,6 C 22,8 C 13,3 C 67 % 0 lf 1027,6 hPa 0,0 l/m 2 min 0 min 686 W/m 20,9 km/h (4 Bft) 97,87 %
24.03.2017 12:56 13,8 C 23,9 C 13,3 C 67 % 0 lf 1027,5 hPa 0,0 l/m 2 min 0 min 646 W/m 12,6 km/h (3 Bft) 95,74 %
24.03.2017 12:58 13,9 C 21,1 C 13,3 C 65 % 0 lf 1027,5 hPa 0,0 l/m 2 min 0 min 566 W/m 12,6 km/h (3 Bft) 91,49 %
24.03.2017 13:00 13,9 C 22,2 C 12,8 C 65 % 0 lf 1027,5 hPa 0,0 l/m 2 min 0 min 522 W/m 18,8 km/h (3 Bft) 95,65 %
24.03.2017 13:02 14,0 C 21,7 C 12,8 C 65 % 0 lf 1027,6 hPa 0,0 l/m 2 min 0 min 597 W/m 14,6 km/h (3 Bft) 95,74 %
24.03.2017 13:04 14,2 C 22,2 C 13,3 C 64 % 0 lf 1027,5 hPa 0,0 l/m 2 min 0 min 711 W/m 18,8 km/h (3 Bft) 95,74 %
24.03.2017 13:06 14,2 C 22,2 C 12,8 C 64 % 0 lf 1027,5 hPa 0,0 l/m 2 min 0 min 681 W/m 23,0 km/h (4 Bft) 95,74 %
24.03.2017 13:08 14,2 C 21,7 C 12,8 C 64 % 0 lf 1027,5 hPa 0,0 l/m 2 min 0 min 620 W/m 18,8 km/h (3 Bft) 97,87 %
24.03.2017 13:10 14,2 C 21,7 C 13,3 C 64 % 0 lf 1027,5 hPa 0,0 l/m 2 min 0 min 609 W/m 18,8 km/h (3 Bft) 95,74 %
24.03.2017 13:12 14,2 C 21,7 C 13,3 C 65 % 0 lf 1027,5 hPa 0,0 l/m 2 min 0 min 632 W/m 14,6 km/h (3 Bft) 95,65 %
24.03.2017 13:14 14,2 C 21,7 C 13,3 C 63 % 0 lf 1027,4 hPa 0,0 l/m 2 min 0 min 584 W/m 12,6 km/h (3 Bft) 87,23 %
24.03.2017 13:16 14,3 C 22,8 C 13,3 C 64 % 0 lf 1027,5 hPa 0,0 l/m 2 min 0 min 643 W/m 20,9 km/h (4 Bft) 95,74 %
24.03.2017 13:18 14,3 C 23,3 C 12,8 C 63 % 0 lf 1027,5 hPa 0,0 l/m 2 min 0 min 655 W/m 25,1 km/h (4 Bft) 93,62 %
24.03.2017 13:20 14,4 C 23,9 C 13,3 C 65 % 0 lf 1027,6 hPa 0,0 l/m 2 min 0 min 614 W/m 27,2 km/h (4 Bft) 95,74 %
24.03.2017 13:22 14,5 C 21,7 C 13,3 C 63 % 0 lf 1027,5 hPa 0,0 l/m 2 min 0 min 583 W/m 29,3 km/h (5 Bft) 95,74 %
24.03.2017 13:24 14,6 C 21,1 C 13,3 C 63 % 0 lf 1027,5 hPa 0,0 l/m 2 min 0 min 525 W/m 18,8 km/h (3 Bft) 97,83 %
24.03.2017 13:26 14,6 C 18,3 C 13,3 C 61 % 0 lf 1027,4 hPa 0,0 l/m 2 min 0 min 569 W/m 33,5 km/h (5 Bft) 97,87 %
24.03.2017 13:28 14,5 C 18,3 C 12,8 C 61 % 0 lf 1027,4 hPa 0,0 l/m 2 min 0 min 630 W/m 23,0 km/h (4 Bft) 97,87 %
24.03.2017 13:30 14,4 C 19,4 C 12,8 C 62 % 0 lf 1027,4 hPa 0,0 l/m 2 min 0 min 610 W/m 29,3 km/h (5 Bft) 93,62 %
24.03.2017 13:32 14,5 C 21,7 C 13,3 C 63 % 0 lf 1027,3 hPa 0,0 l/m 2 min 0 min 633 W/m 27,2 km/h (4 Bft) 95,74 %
24.03.2017 13:34 14,6 C 22,2 C 13,3 C 64 % 0 lf 1027,2 hPa 0,0 l/m 2 min 0 min 629 W/m 29,3 km/h (5 Bft) 97,87 %
24.03.2017 13:36 14,6 C 22,8 C 13,3 C 63 % 0 lf 1027,3 hPa 0,0 l/m 2 min 0 min 611 W/m 27,2 km/h (4 Bft) 95,65 %
24.03.2017 13:38 14,7 C 23,3 C 13,3 C 62 % 0 lf 1027,3 hPa 0,0 l/m 2 min 0 min 607 W/m 25,1 km/h (4 Bft) 97,87 %
24.03.2017 13:40 14,7 C 23,3 C 13,3 C 62 % 0 lf 1027,3 hPa 0,0 l/m 2 min 0 min 569 W/m 23,0 km/h (4 Bft) 95,74 %
24.03.2017 13:42 14,7 C 23,3 C 13,3 C 62 % 0 lf 1027,2 hPa 0,0 l/m 2 min 0 min 618 W/m 29,3 km/h (5 Bft) 95,74 %
24.03.2017 13:44 14,7 C 23,3 C 13,3 C 63 % 0 lf 1027,2 hPa 0,0 l/m 2 min 0 min 627 W/m 35,6 km/h (5 Bft) 95,74 %
24.03.2017 13:46 14,7 C 23,9 C 13,3 C 63 % 0 lf 1027,2 hPa 0,0 l/m 2 min 0 min 631 W/m 29,3 km/h (5 Bft) 97,83 %
24.03.2017 13:48 14,8 C 20,0 C 13,9 C 61 % 0 lf 1027,1 hPa 0,0 l/m 2 min 0 min 579 W/m 29,3 km/h (5 Bft) 97,87 %
24.03.2017 13:50 14,8 C 20,6 C 13,9 C 62 % 0 lf 1027,1 hPa 0,0 l/m 2 min 0 min 492 W/m 20,9 km/h (4 Bft) 93,62 %
24.03.2017 13:52 14,9 C 22,8 C 13,9 C 63 % 0 lf 1027,1 hPa 0,0 l/m 2 min 0 min 550 W/m 18,8 km/h (3 Bft) 95,74 %
24.03.2017 13:54 15,0 C 22,8 C 13,9 C 62 % 0 lf 1027,1 hPa 0,0 l/m 2 min 0 min 622 W/m 20,9 km/h (4 Bft) 95,74 %
24.03.2017 13:56 15,0 C 23,3 C 13,9 C 61 % 0 lf 1027,1 hPa 0,0 l/m 2 min 0 min 578 W/m 29,3 km/h (5 Bft) 93,62 %
24.03.2017 13:58 15,0 C 22,2 C 13,9 C 61 % 0 lf 1027,1 hPa 0,0 l/m 2 min 0 min 601 W/m 25,1 km/h (4 Bft) 89,36 %
24.03.2017 14:00 15,1 C 23,3 C 13,9 C 61 % 0 lf 1027,1 hPa 0,0 l/m 2 min 0 min 636 W/m 27,2 km/h (4 Bft) 93,48 %
24.03.2017 14:02 15,1 C 23,3 C 13,9 C 61 % 0 lf 1027,1 hPa 0,0 l/m 2 min 0 min 595 W/m 18,8 km/h (3 Bft) 93,62 %
24.03.2017 14:04 15,2 C 23,3 C 14,4 C 63 % 0 lf 1027,1 hPa 0,0 l/m 2 min 0 min 585 W/m 25,1 km/h (4 Bft) 95,74 %
24.03.2017 14:06 15,3 C 23,9 C 14,4 C 62 % 0 lf 1027,0 hPa 0,0 l/m 2 min 0 min 601 W/m 25,1 km/h (4 Bft) 93,62 %
24.03.2017 14:08 15,3 C 23,3 C 13,9 C 60 % 0 lf 1026,9 hPa 0,0 l/m 2 min 0 min 569 W/m 20,9 km/h (4 Bft) 93,62 %
24.03.2017 14:10 15,3 C 22,2 C 14,4 C 60 % 0 lf 1026,8 hPa 0,0 l/m 2 min 0 min 507 W/m 29,3 km/h (5 Bft) 95,65 %
24.03.2017 14:12 15,4 C 22,8 C 15,0 C 60 % 0 lf 1026,8 hPa 0,0 l/m 2 min 0 min 557 W/m 23,0 km/h (4 Bft) 93,62 %
24.03.2017 14:14 15,4 C 23,3 C 15,0 C 61 % 0 lf 1026,8 hPa 0,0 l/m 2 min 0 min 581 W/m 27,2 km/h (4 Bft) 93,62 %
24.03.2017 14:16 15,5 C 23,3 C 15,6 C 61 % 0 lf 1026,8 hPa 0,0 l/m 2 min 0 min 590 W/m 23,0 km/h (4 Bft) 95,74 %
24.03.2017 14:18 15,5 C 22,2 C 16,7 C 59 % 0 lf 1026,8 hPa 0,0 l/m 2 min 0 min 583 W/m 27,2 km/h (4 Bft) 95,74 %
24.03.2017 14:20 15,6 C 21,7 C 17,2 C 60 % 0 lf 1026,8 hPa 0,0 l/m 2 min 0 min 517 W/m 27,2 km/h (4 Bft) 93,62 %
24.03.2017 14:22 15,6 C 20,6 C 16,7 C 60 % 0 lf 1026,8 hPa 0,0 l/m 2 min 0 min 475 W/m 27,2 km/h (4 Bft) 89,13 %
24.03.2017 14:24 15,6 C 21,1 C 16,7 C 59 % 0 lf 1026,9 hPa 0,0 l/m 2 min 0 min 568 W/m 20,9 km/h (4 Bft) 95,74 %
24.03.2017 14:26 15,6 C 22,2 C 16,7 C 59 % 0 lf 1026,9 hPa 0,0 l/m 2 min 0 min 598 W/m 20,9 km/h (4 Bft) 93,62 %
24.03.2017 14:28 15,5 C 21,7 C 17,8 C 60 % 0 lf 1026,8 hPa 0,0 l/m 2 min 0 min 598 W/m 23,0 km/h (4 Bft) 95,74 %
24.03.2017 14:30 15,6 C 21,1 C 18,3 C 59 % 0 lf 1026,8 hPa 0,0 l/m 2 min 0 min 585 W/m 27,2 km/h (4 Bft) 95,74 %
24.03.2017 14:32 15,6 C 21,7 C 17,2 C 59 % 0 lf 1026,8 hPa 0,0 l/m 2 min 0 min 584 W/m 25,1 km/h (4 Bft) 93,62 %
24.03.2017 14:34 15,6 C 21,7 C 17,2 C 59 % 0 lf 1026,9 hPa 0,0 l/m 2 min 0 min 572 W/m 25,1 km/h (4 Bft) 97,83 %
24.03.2017 14:36 15,6 C 21,1 C 17,2 C 59 % 0 lf 1026,9 hPa 0,0 l/m 2 min 0 min 575 W/m 25,1 km/h (4 Bft) 95,74 %
24.03.2017 14:38 15,6 C 20,6 C 16,7 C 58 % 0 lf 1026,9 hPa 0,0 l/m 2 min 0 min 571 W/m 27,2 km/h (4 Bft) 93,62 %
24.03.2017 14:40 15,6 C 20,0 C 16,7 C 58 % 0 lf 1026,9 hPa 0,0 l/m 2 min 0 min 567 W/m 20,9 km/h (4 Bft) 93,62 %
24.03.2017 14:42 15,6 C 21,1 C 16,1 C 59 % 0 lf 1026,9 hPa 0,0 l/m 2 min 0 min 565 W/m 27,2 km/h (4 Bft) 95,74 %
24.03.2017 14:44 15,6 C 21,7 C 16,1 C 59 % 0 lf 1026,9 hPa 0,0 l/m 2 min 0 min 552 W/m 31,4 km/h (5 Bft) 97,87 %
24.03.2017 14:46 15,6 C 21,1 C 16,1 C 59 % 0 lf 1026,9 hPa 0,0 l/m 2 min 0 min 550 W/m 23,0 km/h (4 Bft) 100,00 %
24.03.2017 14:48 15,7 C 21,7 C 15,6 C 59 % 0 lf 1026,9 hPa 0,0 l/m 2 min 0 min 542 W/m 25,1 km/h (4 Bft) 100,00 %
24.03.2017 14:50 15,6 C 20,6 C 15,0 C 58 % 0 lf 1026,9 hPa 0,0 l/m 2 min 0 min 527 W/m 35,6 km/h (5 Bft) 95,74 %
24.03.2017 14:52 15,6 C 20,0 C 15,0 C 58 % 0 lf 1027,0 hPa 0,0 l/m 2 min 0 min 512 W/m 33,5 km/h (5 Bft) 97,87 %
24.03.2017 14:54 15,5 C 18,9 C 15,0 C 57 % 0 lf 1026,9 hPa 0,0 l/m 2 min 0 min 513 W/m 31,4 km/h (5 Bft) 100,00 %
24.03.2017 14:56 15,4 C 18,9 C 15,0 C 57 % 0 lf 1026,9 hPa 0,0 l/m 2 min 0 min 524 W/m 20,9 km/h (4 Bft) 97,87 %
24.03.2017 14:58 15,4 C 20,6 C 15,0 C 59 % 0 lf 1026,9 hPa 0,0 l/m 2 min 0 min 509 W/m 27,2 km/h (4 Bft) 100,00 %
24.03.2017 15:00 15,5 C 21,1 C 15,0 C 58 % 0 lf 1026,9 hPa 0,0 l/m 2 min 0 min 515 W/m 20,9 km/h (4 Bft) 100,00 %
24.03.2017 15:02 15,6 C 21,7 C 15,0 C 58 % 0 lf 1026,9 hPa 0,0 l/m 2 min 0 min 541 W/m 27,2 km/h (4 Bft) 97,87 %
24.03.2017 15:04 15,6 C 22,8 C 15,0 C 59 % 0 lf 1026,9 hPa 0,0 l/m 2 min 0 min 501 W/m 29,3 km/h (5 Bft) 100,00 %
24.03.2017 15:06 15,7 C 22,8 C 15,0 C 59 % 0 lf 1026,9 hPa 0,0 l/m 2 min 0 min 500 W/m 27,2 km/h (4 Bft) 95,74 %
24.03.2017 15:08 15,7 C 22,2 C 14,4 C 58 % 0 lf 1026,9 hPa 0,0 l/m 2 min 0 min 475 W/m 27,2 km/h (4 Bft) 100,00 %
24.03.2017 15:10 15,8 C 22,2 C 15,0 C 58 % 0 lf 1026,8 hPa 0,0 l/m 2 min 0 min 472 W/m 23,0 km/h (4 Bft) 100,00 %
24.03.2017 15:12 15,8 C 21,7 C 14,4 C 57 % 0 lf 1026,8 hPa 0,0 l/m 2 min 0 min 481 W/m 29,3 km/h (5 Bft) 97,83 %
24.03.2017 15:14 15,9 C 22,2 C 14,4 C 58 % 0 lf 1026,8 hPa 0,0 l/m 2 min 0 min 518 W/m 23,0 km/h (4 Bft) 91,49 %
24.03.2017 15:16 15,9 C 21,1 C 14,4 C 57 % 0 lf 1026,7 hPa 0,0 l/m 2 min 0 min 499 W/m 23,0 km/h (4 Bft) 97,87 %
24.03.2017 15:18 15,9 C 21,1 C 14,4 C 57 % 0 lf 1026,6 hPa 0,0 l/m 2 min 0 min 452 W/m 25,1 km/h (4 Bft) 95,74 %
24.03.2017 15:20 15,9 C 21,1 C 14,4 C 57 % 0 lf 1026,6 hPa 0,0 l/m 2 min 0 min 408 W/m 20,9 km/h (4 Bft) 97,87 %
24.03.2017 15:22 15,9 C 21,7 C 14,4 C 58 % 0 lf 1026,6 hPa 0,0 l/m 2 min 0 min 435 W/m 27,2 km/h (4 Bft) 95,92 %
24.03.2017 15:24 15,9 C 22,2 C 14,4 C 58 % 0 lf 1026,6 hPa 0,0 l/m 2 min 0 min 455 W/m 20,9 km/h (4 Bft) 95,74 %
24.03.2017 15:26 16,0 C 22,2 C 14,4 C 58 % 0 lf 1026,6 hPa 0,0 l/m 2 min 0 min 455 W/m 27,2 km/h (4 Bft) 95,74 %
24.03.2017 15:28 16,0 C 22,2 C 14,4 C 58 % 0 lf 1026,6 hPa 0,0 l/m 2 min 0 min 454 W/m 27,2 km/h (4 Bft) 97,87 %
24.03.2017 15:30 16,0 C 22,2 C 14,4 C 58 % 0 lf 1026,6 hPa 0,0 l/m 2 min 0 min 434 W/m 31,4 km/h (5 Bft) 97,87 %
24.03.2017 15:32 16,1 C 21,7 C 14,4 C 57 % 0 lf 1026,5 hPa 0,0 l/m 2 min 0 min 426 W/m 27,2 km/h (4 Bft) 95,65 %
24.03.2017 15:34 16,1 C 21,7 C 14,4 C 57 % 0 lf 1026,6 hPa 0,0 l/m 2 min 0 min 418 W/m 20,9 km/h (4 Bft) 95,74 %
24.03.2017 15:36 16,1 C 21,1 C 14,4 C 56 % 0 lf 1026,6 hPa 0,0 l/m 2 min 0 min 435 W/m 20,9 km/h (4 Bft) 97,87 %
24.03.2017 15:38 16,1 C 21,7 C 14,4 C 57 % 0 lf 1026,5 hPa 0,0 l/m 2 min 0 min 427 W/m 18,8 km/h (3 Bft) 97,87 %
24.03.2017 15:40 16,1 C 22,2 C 14,4 C 58 % 0 lf 1026,5 hPa 0,0 l/m 2 min 0 min 422 W/m 20,9 km/h (4 Bft) 95,74 %
24.03.2017 15:42 16,1 C 22,8 C 14,4 C 58 % 0 lf 1026,6 hPa 0,0 l/m 2 min 0 min 453 W/m 16,7 km/h (3 Bft) 97,87 %
24.03.2017 15:44 16,2 C 22,8 C 14,4 C 58 % 0 lf 1026,6 hPa 0,0 l/m 2 min 0 min 447 W/m 14,6 km/h (3 Bft) 97,83 %
24.03.2017 15:46 16,2 C 21,7 C 14,4 C 57 % 0 lf 1026,6 hPa 0,0 l/m 2 min 0 min 436 W/m 27,2 km/h (4 Bft) 95,74 %
24.03.2017 15:48 16,2 C 21,7 C 14,4 C 56 % 0 lf 1026,6 hPa 0,0 l/m 2 min 0 min 432 W/m 16,7 km/h (3 Bft) 97,87 %
24.03.2017 15:50 16,2 C 22,2 C 14,4 C 56 % 0 lf 1026,5 hPa 0,0 l/m 2 min 0 min 407 W/m 27,2 km/h (4 Bft) 95,74 %
24.03.2017 15:52 16,2 C 21,7 C 14,4 C 56 % 0 lf 1026,6 hPa 0,0 l/m 2 min 0 min 409 W/m 23,0 km/h (4 Bft) 97,87 %
24.03.2017 15:54 16,3 C 22,2 C 14,4 C 56 % 0 lf 1026,6 hPa 0,0 l/m 2 min 0 min 415 W/m 20,9 km/h (4 Bft) 97,87 %
24.03.2017 15:56 16,3 C 22,8 C 14,4 C 56 % 0 lf 1026,5 hPa 0,0 l/m 2 min 0 min 403 W/m 20,9 km/h (4 Bft) 97,83 %
24.03.2017 15:58 16,3 C 22,2 C 13,9 C 56 % 0 lf 1026,6 hPa 0,0 l/m 2 min 0 min 385 W/m 27,2 km/h (4 Bft) 97,87 %
24.03.2017 16:00 16,3 C 21,1 C 13,9 C 56 % 0 lf 1026,5 hPa 0,0 l/m 2 min 0 min 383 W/m 25,1 km/h (4 Bft) 100,00 %
24.03.2017 16:02 16,3 C 22,2 C 13,9 C 56 % 0 lf 1026,6 hPa 0,0 l/m 2 min 0 min 390 W/m 27,2 km/h (4 Bft) 100,00 %
24.03.2017 16:04 16,3 C 21,7 C 13,9 C 56 % 0 lf 1026,5 hPa 0,0 l/m 2 min 0 min 379 W/m 31,4 km/h (5 Bft) 100,00 %
24.03.2017 16:06 16,3 C 22,2 C 13,9 C 55 % 0 lf 1026,6 hPa 0,0 l/m 2 min 0 min 376 W/m 20,9 km/h (4 Bft) 93,48 %
24.03.2017 16:08 16,2 C 22,2 C 13,9 C 56 % 0 lf 1026,7 hPa 0,0 l/m 2 min 0 min 378 W/m 16,7 km/h (3 Bft) 97,87 %
24.03.2017 16:10 16,2 C 22,8 C 13,9 C 56 % 0 lf 1026,6 hPa 0,0 l/m 2 min 0 min 370 W/m 18,8 km/h (3 Bft) 93,62 %
24.03.2017 16:12 16,3 C 22,2 C 13,9 C 56 % 0 lf 1026,6 hPa 0,0 l/m 2 min 0 min 363 W/m 25,1 km/h (4 Bft) 100,00 %
24.03.2017 16:14 16,2 C 22,2 C 13,9 C 56 % 0 lf 1026,5 hPa 0,0 l/m 2 min 0 min 355 W/m 33,5 km/h (5 Bft) 97,87 %
24.03.2017 16:16 16,2 C 21,1 C 13,9 C 55 % 0 lf 1026,7 hPa 0,0 l/m 2 min 0 min 323 W/m 27,2 km/h (4 Bft) 95,74 %
24.03.2017 16:18 16,1 C 20,6 C 13,3 C 55 % 0 lf 1026,8 hPa 0,0 l/m 2 min 0 min 306 W/m 27,2 km/h (4 Bft) 91,30 %
24.03.2017 16:20 16,1 C 20,6 C 13,3 C 55 % 0 lf 1026,7 hPa 0,0 l/m 2 min 0 min 297 W/m 23,0 km/h (4 Bft) 97,87 %
24.03.2017 16:22 16,0 C 20,6 C 13,3 C 56 % 0 lf 1026,7 hPa 0,0 l/m 2 min 0 min 307 W/m 25,1 km/h (4 Bft) 93,62 %
24.03.2017 16:24 15,9 C 20,6 C 13,3 C 55 % 0 lf 1026,6 hPa 0,0 l/m 2 min 0 min 299 W/m 27,2 km/h (4 Bft) 100,00 %
24.03.2017 16:26 15,9 C 20,6 C 13,3 C 55 % 0 lf 1026,7 hPa 0,0 l/m 2 min 0 min 298 W/m 23,0 km/h (4 Bft) 91,49 %
24.03.2017 16:28 15,9 C 20,6 C 13,3 C 55 % 0 lf 1026,7 hPa 0,0 l/m 2 min 0 min 300 W/m 27,2 km/h (4 Bft) 93,62 %
24.03.2017 16:30 15,8 C 20,6 C 13,3 C 56 % 0 lf 1026,7 hPa 0,0 l/m 2 min 0 min 286 W/m 27,2 km/h (4 Bft) 93,48 %
24.03.2017 16:32 15,8 C 20,0 C 13,3 C 56 % 0 lf 1026,7 hPa 0,0 l/m 2 min 0 min 287 W/m 29,3 km/h (5 Bft) 93,62 %
24.03.2017 16:34 15,7 C 20,0 C 13,3 C 56 % 0 lf 1026,7 hPa 0,0 l/m 2 min 0 min 289 W/m 29,3 km/h (5 Bft) 91,49 %
24.03.2017 16:36 15,7 C 20,0 C 13,3 C 56 % 0 lf 1026,6 hPa 0,0 l/m 2 min 0 min 281 W/m 29,3 km/h (5 Bft) 93,62 %
24.03.2017 16:38 15,6 C 19,4 C 12,8 C 56 % 0 lf 1026,6 hPa 0,0 l/m 2 min 0 min 263 W/m 29,3 km/h (5 Bft) 89,36 %
24.03.2017 16:40 15,6 C 19,4 C 12,8 C 56 % 0 lf 1026,5 hPa 0,0 l/m 2 min 0 min 262 W/m 25,1 km/h (4 Bft) 91,49 %
24.03.2017 16:42 15,5 C 19,4 C 12,8 C 56 % 0 lf 1026,7 hPa 0,0 l/m 2 min 0 min 264 W/m 35,6 km/h (5 Bft) 91,30 %
24.03.2017 16:44 15,4 C 19,4 C 12,8 C 57 % 0 lf 1026,7 hPa 0,0 l/m 2 min 0 min 256 W/m 29,3 km/h (5 Bft) 93,62 %
24.03.2017 16:46 15,4 C 18,9 C 12,8 C 57 % 0 lf 1026,6 hPa 0,0 l/m 2 min 0 min 244 W/m 37,7 km/h (5 Bft) 93,62 %
24.03.2017 16:48 15,3 C 18,9 C 12,8 C 57 % 0 lf 1026,6 hPa 0,0 l/m 2 min 0 min 249 W/m 25,1 km/h (4 Bft) 93,62 %
24.03.2017 16:50 15,3 C 18,9 C 12,8 C 57 % 0 lf 1026,6 hPa 0,0 l/m 2 min 0 min 246 W/m 27,2 km/h (4 Bft) 91,49 %
24.03.2017 16:52 15,2 C 18,9 C 12,8 C 57 % 0 lf 1026,6 hPa 0,0 l/m 2 min 0 min 242 W/m 31,4 km/h (5 Bft) 93,62 %
24.03.2017 16:54 15,2 C 18,9 C 12,8 C 57 % 0 lf 1026,5 hPa 0,0 l/m 2 min 0 min 239 W/m 29,3 km/h (5 Bft) 93,48 %
24.03.2017 16:56 15,2 C 18,9 C 12,8 C 57 % 0 lf 1026,6 hPa 0,0 l/m 2 min 0 min 233 W/m 35,6 km/h (5 Bft) 87,23 %
24.03.2017 16:58 15,2 C 18,9 C 12,8 C 56 % 0 lf 1026,6 hPa 0,0 l/m 2 min 0 min 230 W/m 33,5 km/h (5 Bft) 93,62 %
24.03.2017 17:00 15,2 C 19,4 C 12,8 C 57 % 0 lf 1026,5 hPa 0,0 l/m 2 min 0 min 224 W/m 23,0 km/h (4 Bft) 91,49 %
24.03.2017 17:02 15,2 C 19,4 C 12,8 C 57 % 0 lf 1026,5 hPa 0,0 l/m 2 min 0 min 220 W/m 27,2 km/h (4 Bft) 93,62 %
24.03.2017 17:04 15,2 C 19,4 C 12,8 C 57 % 0 lf 1026,6 hPa 0,0 l/m 2 min 0 min 213 W/m 35,6 km/h (5 Bft) 91,49 %
24.03.2017 17:06 15,2 C 18,9 C 12,8 C 56 % 0 lf 1026,7 hPa 0,0 l/m 2 min 0 min 208 W/m 33,5 km/h (5 Bft) 95,65 %
24.03.2017 17:08 15,2 C 18,9 C 12,2 C 56 % 0 lf 1026,6 hPa 0,0 l/m 2 min 0 min 200 W/m 27,2 km/h (4 Bft) 95,74 %
24.03.2017 17:10 15,2 C 18,9 C 12,2 C 56 % 0 lf 1026,6 hPa 0,0 l/m 2 min 0 min 194 W/m 33,5 km/h (5 Bft) 95,74 %
24.03.2017 17:12 15,2 C 18,3 C 12,2 C 56 % 0 lf 1026,7 hPa 0,0 l/m 2 min 0 min 186 W/m 23,0 km/h (4 Bft) 95,74 %
24.03.2017 17:14 15,2 C 17,8 C 12,2 C 56 % 0 lf 1026,8 hPa 0,0 l/m 2 min 0 min 181 W/m 29,3 km/h (5 Bft) 97,87 %
24.03.2017 17:16 15,2 C 17,8 C 12,2 C 57 % 0 lf 1026,8 hPa 0,0 l/m 2 min 0 min 175 W/m 33,5 km/h (5 Bft) 93,62 %
24.03.2017 17:18 15,2 C 17,8 C 12,2 C 57 % 0 lf 1026,8 hPa 0,0 l/m 2 min 0 min 167 W/m 27,2 km/h (4 Bft) 97,83 %
24.03.2017 17:20 15,2 C 17,8 C 12,2 C 57 % 0 lf 1026,9 hPa 0,0 l/m 2 min 0 min 160 W/m 23,0 km/h (4 Bft) 97,87 %
24.03.2017 17:22 15,2 C 17,8 C 12,2 C 57 % 0 lf 1026,8 hPa 0,0 l/m 2 min 0 min 154 W/m 18,8 km/h (3 Bft) 97,87 %
24.03.2017 17:24 15,2 C 17,8 C 12,2 C 57 % 0 lf 1026,9 hPa 0,0 l/m 2 min 0 min 148 W/m 29,3 km/h (5 Bft) 93,62 %
24.03.2017 17:26 15,1 C 17,8 C 12,2 C 57 % 0 lf 1026,9 hPa 0,0 l/m 2 min 0 min 142 W/m 25,1 km/h (4 Bft) 100,00 %
24.03.2017 17:28 15,1 C 17,2 C 12,2 C 57 % 0 lf 1026,9 hPa 0,0 l/m 2 min 0 min 136 W/m 27,2 km/h (4 Bft) 97,83 %
24.03.2017 17:30 15,1 C 16,7 C 12,2 C 56 % 0 lf 1026,9 hPa 0,0 l/m 2 min 0 min 130 W/m 31,4 km/h (5 Bft) 97,87 %
24.03.2017 17:32 15,0 C 16,1 C 12,2 C 56 % 0 lf 1026,9 hPa 0,0 l/m 2 min 0 min 127 W/m 27,2 km/h (4 Bft) 97,87 %
24.03.2017 17:34 14,9 C 16,1 C 11,7 C 56 % 0 lf 1026,9 hPa 0,0 l/m 2 min 0 min 122 W/m 25,1 km/h (4 Bft) 97,87 %
24.03.2017 17:36 14,9 C 16,1 C 11,7 C 56 % 0 lf 1026,9 hPa 0,0 l/m 2 min 0 min 115 W/m 20,9 km/h (4 Bft) 93,62 %
24.03.2017 17:38 14,9 C 16,1 C 11,7 C 57 % 0 lf 1027,0 hPa 0,0 l/m 2 min 0 min 110 W/m 20,9 km/h (4 Bft) 100,00 %
24.03.2017 17:40 14,9 C 15,6 C 11,7 C 57 % 0 lf 1027,0 hPa 0,0 l/m 2 min 0 min 105 W/m 16,7 km/h (3 Bft) 100,00 %
24.03.2017 17:42 14,8 C 15,6 C 11,7 C 57 % 0 lf 1027,1 hPa 0,0 l/m 2 min 0 min 99 W/m 29,3 km/h (5 Bft) 97,87 %
24.03.2017 17:44 14,8 C 15,0 C 11,7 C 57 % 0 lf 1027,1 hPa 0,0 l/m 2 min 0 min 93 W/m 27,2 km/h (4 Bft) 97,87 %
24.03.2017 17:46 14,7 C 15,0 C 11,7 C 57 % 0 lf 1027,2 hPa 0,0 l/m 2 min 0 min 90 W/m 27,2 km/h (4 Bft) 89,36 %
24.03.2017 17:48 14,7 C 14,4 C 11,7 C 57 % 0 lf 1027,2 hPa 0,0 l/m 2 min 0 min 84 W/m 31,4 km/h (5 Bft) 100,00 %
24.03.2017 17:50 14,6 C 14,4 C 11,7 C 58 % 0 lf 1027,2 hPa 0,0 l/m 2 min 0 min 79 W/m 25,1 km/h (4 Bft) 97,87 %
24.03.2017 17:52 14,6 C 14,4 C 11,7 C 58 % 0 lf 1027,2 hPa 0,0 l/m 2 min 0 min 76 W/m 31,4 km/h (5 Bft) 97,83 %
24.03.2017 17:54 14,5 C 14,4 C 11,7 C 58 % 0 lf 1027,2 hPa 0,0 l/m 0 min 0 min 71 W/m 27,2 km/h (4 Bft) 95,74 %
24.03.2017 17:56 14,4 C 13,9 C 11,7 C 58 % 0 lf 1027,2 hPa 0,0 l/m 0 min 0 min 68 W/m 33,5 km/h (5 Bft) 100,00 %
24.03.2017 17:58 14,3 C 13,9 C 11,7 C 58 % 0 lf 1027,2 hPa 0,0 l/m 0 min 0 min 64 W/m 25,1 km/h (4 Bft) 95,74 %
24.03.2017 18:00 14,3 C 13,9 C 11,1 C 58 % 0 lf 1027,3 hPa 0,0 l/m 0 min 0 min 60 W/m 25,1 km/h (4 Bft) 100,00 %
24.03.2017 18:02 14,2 C 13,9 C 11,1 C 58 % 0 lf 1027,3 hPa 0,0 l/m 0 min 0 min 56 W/m 33,5 km/h (5 Bft) 95,74 %
24.03.2017 18:04 14,2 C 13,9 C 11,1 C 58 % 0 lf 1027,4 hPa 0,0 l/m 0 min 0 min 52 W/m 27,2 km/h (4 Bft) 95,65 %
24.03.2017 18:06 14,2 C 13,9 C 11,1 C 57 % 0 lf 1027,4 hPa 0,0 l/m 0 min 0 min 49 W/m 27,2 km/h (4 Bft) 97,87 %
24.03.2017 18:08 14,2 C 13,9 C 11,7 C 57 % 0 lf 1027,5 hPa 0,0 l/m 0 min 0 min 45 W/m 33,5 km/h (5 Bft) 95,92 %
24.03.2017 18:10 14,1 C 13,9 C 11,1 C 58 % 0 lf 1027,6 hPa 0,0 l/m 0 min 0 min 41 W/m 31,4 km/h (5 Bft) 97,87 %
24.03.2017 18:12 13,9 C 13,9 C 11,1 C 58 % 0 lf 1027,6 hPa 0,0 l/m 0 min 0 min 37 W/m 23,0 km/h (4 Bft) 95,74 %
24.03.2017 18:14 13,9 C 13,3 C 11,1 C 58 % 0 lf 1027,6 hPa 0,0 l/m 0 min 0 min 34 W/m 16,7 km/h (3 Bft) 97,87 %
24.03.2017 18:16 13,8 C 13,3 C 11,1 C 58 % 0 lf 1027,7 hPa 0,0 l/m 0 min 0 min 33 W/m 27,2 km/h (4 Bft) 95,65 %
24.03.2017 18:18 13,8 C 13,3 C 11,1 C 58 % 0 lf 1027,7 hPa 0,0 l/m 0 min 0 min 32 W/m 31,4 km/h (5 Bft) 95,74 %
24.03.2017 18:20 13,7 C 13,3 C 11,1 C 58 % 0 lf 1027,6 hPa 0,0 l/m 0 min 0 min 29 W/m 27,2 km/h (4 Bft) 93,62 %
24.03.2017 18:22 13,7 C 13,3 C 10,6 C 58 % 0 lf 1027,7 hPa 0,0 l/m 0 min 0 min 27 W/m 31,4 km/h (5 Bft) 95,74 %
24.03.2017 18:24 13,6 C 13,3 C 10,6 C 58 % 0 lf 1027,8 hPa 0,0 l/m 0 min 0 min 25 W/m 27,2 km/h (4 Bft) 97,87 %
24.03.2017 18:26 13,5 C 13,3 C 10,6 C 59 % 0 lf 1027,7 hPa 0,0 l/m 0 min 0 min 23 W/m 23,0 km/h (4 Bft) 95,65 %
24.03.2017 18:28 13,4 C 12,8 C 10,6 C 59 % 0 lf 1027,7 hPa 0,0 l/m 0 min 0 min 22 W/m 31,4 km/h (5 Bft) 97,87 %
24.03.2017 18:30 13,4 C 12,8 C 10,6 C 59 % 0 lf 1027,7 hPa 0,0 l/m 0 min 0 min 20 W/m 23,0 km/h (4 Bft) 95,74 %
24.03.2017 18:32 13,3 C 12,8 C 10,0 C 59 % 0 lf 1027,8 hPa 0,0 l/m 0 min 0 min 19 W/m 20,9 km/h (4 Bft) 97,87 %
24.03.2017 18:34 13,3 C 12,8 C 10,0 C 60 % 0 lf 1027,8 hPa 0,0 l/m 0 min 0 min 17 W/m 20,9 km/h (4 Bft) 95,74 %
24.03.2017 18:36 13,2 C 12,8 C 10,0 C 60 % 0 lf 1027,9 hPa 0,0 l/m 0 min 0 min 16 W/m 20,9 km/h (4 Bft) 97,87 %
24.03.2017 18:38 13,2 C 12,8 C 10,0 C 60 % 0 lf 1027,8 hPa 0,0 l/m 0 min 0 min 19 W/m 20,9 km/h (4 Bft) 95,74 %
24.03.2017 18:40 13,2 C 12,2 C 10,0 C 60 % 0 lf 1027,9 hPa 0,0 l/m 0 min 0 min 15 W/m 16,7 km/h (3 Bft) 97,83 %
24.03.2017 18:42 13,1 C 12,2 C 9,4 C 60 % 0 lf 1027,9 hPa 0,0 l/m 0 min 0 min 11 W/m 23,0 km/h (4 Bft) 97,87 %
24.03.2017 18:44 13,0 C 12,2 C 10,0 C 60 % 0 lf 1027,9 hPa 0,0 l/m 0 min 0 min 9 W/m 27,2 km/h (4 Bft) 93,62 %
24.03.2017 18:46 12,9 C 12,2 C 9,4 C 60 % 0 lf 1027,9 hPa 0,0 l/m 0 min 0 min 7 W/m 16,7 km/h (3 Bft) 93,62 %
24.03.2017 18:48 12,9 C 12,2 C 9,4 C 60 % 0 lf 1027,9 hPa 0,0 l/m 0 min 0 min 6 W/m 20,9 km/h (4 Bft) 95,74 %
24.03.2017 18:50 12,8 C 12,2 C 9,4 C 60 % 0 lf 1028,0 hPa 0,0 l/m 0 min 0 min 5 W/m 23,0 km/h (4 Bft) 97,83 %
24.03.2017 18:52 12,8 C 12,2 C 9,4 C 61 % 0 lf 1028,0 hPa 0,0 l/m 0 min 0 min 3 W/m 27,2 km/h (4 Bft) 95,74 %
24.03.2017 18:54 12,7 C 11,7 C 9,4 C 61 % 0 lf 1028,1 hPa 0,0 l/m 0 min 0 min 1 W/m 20,9 km/h (4 Bft) 97,87 %
24.03.2017 18:56 12,6 C 11,7 C 9,4 C 61 % 0 lf 1028,1 hPa 0,0 l/m 0 min 0 min 0 W/m 20,9 km/h (4 Bft) 95,74 %
24.03.2017 18:58 12,6 C 11,7 C 8,9 C 61 % 0 lf 1028,1 hPa 0,0 l/m 0 min 0 min 0 W/m 20,9 km/h (4 Bft) 95,74 %
24.03.2017 19:00 12,5 C 11,7 C 8,9 C 61 % 0 lf 1028,0 hPa 0,0 l/m 0 min 0 min 0 W/m 12,6 km/h (3 Bft) 95,74 %
24.03.2017 19:02 12,4 C 11,7 C 8,9 C 61 % 0 lf 1028,0 hPa 0,0 l/m 0 min 0 min 0 W/m 23,0 km/h (4 Bft) 93,48 %
24.03.2017 19:04 12,4 C 11,7 C 8,9 C 62 % 0 lf 1028,0 hPa 0,0 l/m 0 min 0 min 0 W/m 23,0 km/h (4 Bft) 93,62 %
24.03.2017 19:06 12,3 C 11,7 C 8,9 C 62 % 0 lf 1028,0 hPa 0,0 l/m 0 min 0 min 0 W/m 12,6 km/h (3 Bft) 95,74 %
24.03.2017 19:08 12,3 C 11,7 C 8,9 C 62 % 0 lf 1027,9 hPa 0,0 l/m 0 min 0 min 0 W/m 18,8 km/h (3 Bft) 95,74 %
24.03.2017 19:10 12,3 C 11,7 C 8,9 C 62 % 0 lf 1027,9 hPa 0,0 l/m 0 min 0 min 0 W/m 18,8 km/h (3 Bft) 91,49 %
24.03.2017 19:12 12,2 C 11,7 C 8,3 C 62 % 0 lf 1027,9 hPa 0,0 l/m 0 min 0 min 0 W/m 16,7 km/h (3 Bft) 93,62 %
24.03.2017 19:14 12,2 C 11,1 C 8,3 C 63 % 0 lf 1028,0 hPa 0,0 l/m 0 min 0 min 0 W/m 18,8 km/h (3 Bft) 93,48 %
24.03.2017 19:16 12,1 C 11,1 C 8,3 C 63 % 0 lf 1028,1 hPa 0,0 l/m 0 min 0 min 0 W/m 18,8 km/h (3 Bft) 95,74 %
24.03.2017 19:18 12,1 C 11,1 C 8,3 C 63 % 0 lf 1028,1 hPa 0,0 l/m 0 min 0 min 0 W/m 12,6 km/h (3 Bft) 93,62 %
24.03.2017 19:20 12,0 C 11,1 C 7,8 C 63 % 0 lf 1028,1 hPa 0,0 l/m 0 min 0 min 0 W/m 10,5 km/h (2 Bft) 91,49 %
24.03.2017 19:22 11,9 C 11,1 C 7,8 C 63 % 0 lf 1028,1 hPa 0,0 l/m 0 min 0 min 0 W/m 10,5 km/h (2 Bft) 95,65 %
24.03.2017 19:24 11,9 C 11,1 C 7,8 C 64 % 0 lf 1028,1 hPa 0,0 l/m 0 min 0 min 0 W/m 20,9 km/h (4 Bft) 95,74 %
24.03.2017 19:26 11,8 C 11,1 C 7,8 C 64 % 0 lf 1028,1 hPa 0,0 l/m 0 min 0 min 0 W/m 14,6 km/h (3 Bft) 91,30 %
24.03.2017 19:28 11,8 C 11,1 C 7,8 C 64 % 0 lf 1028,1 hPa 0,0 l/m 0 min 0 min 0 W/m 16,7 km/h (3 Bft) 93,62 %
24.03.2017 19:30 11,7 C 11,1 C 7,2 C 64 % 0 lf 1028,1 hPa 0,0 l/m 0 min 0 min 0 W/m 14,6 km/h (3 Bft) 93,62 %
24.03.2017 19:32 11,7 C 10,6 C 7,2 C 64 % 0 lf 1028,1 hPa 0,0 l/m 0 min 0 min 0 W/m 14,6 km/h (3 Bft) 95,74 %
24.03.2017 19:34 11,6 C 10,6 C 7,2 C 65 % 0 lf 1028,1 hPa 0,0 l/m 0 min 0 min 0 W/m 16,7 km/h (3 Bft) 89,36 %
24.03.2017 19:36 11,6 C 10,6 C 7,2 C 65 % 0 lf 1028,1 hPa 0,0 l/m 0 min 0 min 0 W/m 16,7 km/h (3 Bft) 93,48 %
24.03.2017 19:38 11,5 C 10,6 C 7,8 C 65 % 0 lf 1028,1 hPa 0,0 l/m 0 min 0 min 0 W/m 16,7 km/h (3 Bft) 95,74 %
24.03.2017 19:40 11,4 C 10,6 C 7,8 C 65 % 0 lf 1028,2 hPa 0,0 l/m 0 min 0 min 0 W/m 20,9 km/h (4 Bft) 97,87 %
24.03.2017 19:42 11,4 C 10,6 C 7,8 C 65 % 0 lf 1028,1 hPa 0,0 l/m 0 min 0 min 1 W/m 20,9 km/h (4 Bft) 97,87 %
24.03.2017 19:44 11,3 C 10,6 C 7,8 C 66 % 0 lf 1028,2 hPa 0,0 l/m 0 min 0 min 1 W/m 20,9 km/h (4 Bft) 91,49 %
24.03.2017 19:46 11,2 C 10,6 C 7,8 C 66 % 0 lf 1028,2 hPa 0,0 l/m 0 min 0 min 0 W/m 20,9 km/h (4 Bft) 95,74 %
24.03.2017 19:48 11,2 C 10,6 C 7,8 C 66 % 0 lf 1028,2 hPa 0,0 l/m 0 min 0 min 1 W/m 16,7 km/h (3 Bft) 95,74 %
24.03.2017 19:50 11,2 C 10,6 C 7,8 C 66 % 0 lf 1028,3 hPa 0,0 l/m 0 min 0 min 4 W/m 16,7 km/h (3 Bft) 93,48 %
24.03.2017 19:52 11,1 C 10,6 C 7,8 C 66 % 0 lf 1028,2 hPa 0,0 l/m 0 min 0 min 4 W/m 16,7 km/h (3 Bft) 91,49 %
24.03.2017 19:54 11,1 C 10,0 C 7,8 C 66 % 0 lf 1028,3 hPa 0,0 l/m 0 min 0 min 3 W/m 16,7 km/h (3 Bft) 93,62 %
24.03.2017 19:56 11,0 C 10,0 C 7,8 C 66 % 0 lf 1028,3 hPa 0,0 l/m 0 min 0 min 2 W/m 18,8 km/h (3 Bft) 93,62 %
24.03.2017 19:58 10,9 C 10,0 C 7,2 C 67 % 0 lf 1028,3 hPa 0,0 l/m 0 min 0 min 0 W/m 14,6 km/h (3 Bft) 97,87 %
24.03.2017 20:00 10,9 C 10,0 C 7,2 C 67 % 0 lf 1028,3 hPa 0,0 l/m 0 min 0 min 0 W/m 16,7 km/h (3 Bft) 97,87 %
24.03.2017 20:02 10,9 C 10,0 C 7,2 C 67 % 0 lf 1028,4 hPa 0,0 l/m 0 min 0 min 0 W/m 18,8 km/h (3 Bft) 97,83 %
24.03.2017 20:04 10,8 C 10,0 C 7,2 C 67 % 0 lf 1028,4 hPa 0,0 l/m 0 min 0 min 0 W/m 14,6 km/h (3 Bft) 97,87 %
24.03.2017 20:06 10,8 C 10,0 C 7,2 C 67 % 0 lf 1028,4 hPa 0,0 l/m 0 min 0 min 0 W/m 25,1 km/h (4 Bft) 93,62 %
24.03.2017 20:08 10,8 C 10,0 C 7,2 C 67 % 0 lf 1028,4 hPa 0,0 l/m 0 min 0 min 0 W/m 18,8 km/h (3 Bft) 97,87 %
24.03.2017 20:10 10,7 C 10,0 C 7,8 C 67 % 0 lf 1028,4 hPa 0,0 l/m 0 min 0 min 0 W/m 18,8 km/h (3 Bft) 93,62 %
24.03.2017 20:12 10,7 C 10,0 C 7,8 C 67 % 0 lf 1028,4 hPa 0,0 l/m 0 min 0 min 0 W/m 18,8 km/h (3 Bft) 97,83 %
24.03.2017 20:14 10,7 C 10,0 C 7,2 C 67 % 0 lf 1028,4 hPa 0,0 l/m 0 min 0 min 0 W/m 16,7 km/h (3 Bft) 95,74 %
24.03.2017 20:16 10,6 C 10,0 C 7,8 C 67 % 0 lf 1028,4 hPa 0,0 l/m 0 min 0 min 0 W/m 16,7 km/h (3 Bft) 95,74 %
24.03.2017 20:18 10,6 C 10,0 C 7,8 C 68 % 0 lf 1028,4 hPa 0,0 l/m 0 min 0 min 0 W/m 16,7 km/h (3 Bft) 97,87 %
24.03.2017 20:20 10,6 C 10,0 C 7,8 C 68 % 0 lf 1028,4 hPa 0,0 l/m 0 min 0 min 0 W/m 23,0 km/h (4 Bft) 93,62 %
24.03.2017 20:22 10,6 C 10,0 C 7,8 C 68 % 0 lf 1028,4 hPa 0,0 l/m 0 min 0 min 0 W/m 27,2 km/h (4 Bft) 95,74 %
24.03.2017 20:24 10,5 C 10,0 C 7,8 C 68 % 0 lf 1028,5 hPa 0,0 l/m 0 min 0 min 0 W/m 18,8 km/h (3 Bft) 95,74 %
24.03.2017 20:26 10,5 C 10,0 C 7,2 C 68 % 0 lf 1028,4 hPa 0,0 l/m 0 min 0 min 0 W/m 23,0 km/h (4 Bft) 97,83 %
24.03.2017 20:28 10,4 C 10,0 C 7,2 C 68 % 0 lf 1028,4 hPa 0,0 l/m 0 min 0 min 0 W/m 23,0 km/h (4 Bft) 97,87 %
24.03.2017 20:30 10,4 C 10,0 C 7,8 C 68 % 0 lf 1028,5 hPa 0,0 l/m 0 min 0 min 0 W/m 20,9 km/h (4 Bft) 95,74 %
24.03.2017 20:32 10,4 C 10,0 C 7,8 C 68 % 0 lf 1028,5 hPa 0,0 l/m 0 min 0 min 0 W/m 18,8 km/h (3 Bft) 97,87 %
24.03.2017 20:34 10,4 C 10,0 C 7,2 C 68 % 0 lf 1028,5 hPa 0,0 l/m 0 min 0 min 0 W/m 18,8 km/h (3 Bft) 100,00 %
24.03.2017 20:36 10,4 C 10,0 C 7,2 C 68 % 0 lf 1028,5 hPa 0,0 l/m 0 min 0 min 0 W/m 18,8 km/h (3 Bft) 93,48 %
24.03.2017 20:38 10,3 C 10,0 C 7,2 C 68 % 0 lf 1028,5 hPa 0,0 l/m 0 min 0 min 0 W/m 23,0 km/h (4 Bft) 95,74 %
24.03.2017 20:40 10,3 C 10,0 C 7,2 C 68 % 0 lf 1028,6 hPa 0,0 l/m 0 min 0 min 0 W/m 16,7 km/h (3 Bft) 97,87 %
24.03.2017 20:42 10,3 C 10,0 C 7,2 C 68 % 0 lf 1028,6 hPa 0,0 l/m 0 min 0 min 2 W/m 18,8 km/h (3 Bft) 97,87 %
24.03.2017 20:44 10,3 C 10,0 C 7,2 C 68 % 0 lf 1028,8 hPa 0,0 l/m 0 min 0 min 1 W/m 20,9 km/h (4 Bft) 95,74 %
24.03.2017 20:46 10,3 C 10,0 C 7,2 C 68 % 0 lf 1028,8 hPa 0,0 l/m 0 min 0 min 0 W/m 18,8 km/h (3 Bft) 100,00 %
24.03.2017 20:48 10,2 C 10,0 C 7,2 C 68 % 0 lf 1028,8 hPa 0,0 l/m 0 min 0 min 0 W/m 18,8 km/h (3 Bft) 95,65 %
24.03.2017 20:50 10,2 C 10,0 C 7,2 C 68 % 0 lf 1028,8 hPa 0,0 l/m 0 min 0 min 0 W/m 20,9 km/h (4 Bft) 100,00 %
24.03.2017 20:52 10,2 C 10,0 C 7,2 C 68 % 0 lf 1028,8 hPa 0,0 l/m 0 min 0 min 1 W/m 23,0 km/h (4 Bft) 93,62 %
24.03.2017 20:54 10,2 C 10,0 C 7,2 C 68 % 0 lf 1028,9 hPa 0,0 l/m 0 min 0 min 0 W/m 20,9 km/h (4 Bft) 91,49 %
24.03.2017 20:56 10,2 C 10,0 C 7,2 C 68 % 0 lf 1028,9 hPa 0,0 l/m 0 min 0 min 0 W/m 23,0 km/h (4 Bft) 95,74 %
24.03.2017 20:58 10,2 C 10,0 C 7,2 C 68 % 0 lf 1028,9 hPa 0,0 l/m 0 min 0 min 1 W/m 25,1 km/h (4 Bft) 100,00 %
24.03.2017 21:00 10,1 C 10,0 C 7,2 C 68 % 0 lf 1028,9 hPa 0,0 l/m 0 min 0 min 2 W/m 23,0 km/h (4 Bft) 95,65 %
24.03.2017 21:02 10,1 C 10,0 C 7,2 C 68 % 0 lf 1028,9 hPa 0,0 l/m 0 min 0 min 1 W/m 29,3 km/h (5 Bft) 97,87 %
24.03.2017 21:04 10,1 C 10,0 C 7,2 C 68 % 0 lf 1028,9 hPa 0,0 l/m 0 min 0 min 2 W/m 23,0 km/h (4 Bft) 95,74 %
24.03.2017 21:06 10,1 C 10,0 C 7,2 C 68 % 0 lf 1028,9 hPa 0,0 l/m 0 min 0 min 2 W/m 20,9 km/h (4 Bft) 93,62 %
24.03.2017 21:08 10,1 C 10,0 C 7,2 C 68 % 0 lf 1029,0 hPa 0,0 l/m 0 min 0 min 0 W/m 25,1 km/h (4 Bft) 97,87 %
24.03.2017 21:10 10,0 C 9,4 C 7,2 C 68 % 0 lf 1029,0 hPa 0,0 l/m 0 min 0 min 2 W/m 16,7 km/h (3 Bft) 97,83 %
24.03.2017 21:12 10,0 C 9,4 C 7,2 C 68 % 0 lf 1029,0 hPa 0,0 l/m 0 min 0 min 2 W/m 16,7 km/h (3 Bft) 95,74 %
24.03.2017 21:14 10,0 C 9,4 C 7,2 C 69 % 0 lf 1029,0 hPa 0,0 l/m 0 min 0 min 2 W/m 18,8 km/h (3 Bft) 97,87 %
24.03.2017 21:16 9,9 C 9,4 C 7,2 C 69 % 0 lf 1029,0 hPa 0,0 l/m 0 min 0 min 2 W/m 25,1 km/h (4 Bft) 97,87 %
24.03.2017 21:18 9,9 C 9,4 C 7,2 C 69 % 0 lf 1029,0 hPa 0,0 l/m 0 min 0 min 2 W/m 23,0 km/h (4 Bft) 93,62 %
24.03.2017 21:20 9,9 C 9,4 C 7,2 C 69 % 0 lf 1029,0 hPa 0,0 l/m 0 min 0 min 1 W/m 20,9 km/h (4 Bft) 97,87 %
24.03.2017 21:22 9,9 C 9,4 C 6,7 C 69 % 0 lf 1029,0 hPa 0,0 l/m 0 min 0 min 2 W/m 25,1 km/h (4 Bft) 95,65 %
24.03.2017 21:24 9,8 C 9,4 C 6,7 C 69 % 0 lf 1029,1 hPa 0,0 l/m 0 min 0 min 2 W/m 23,0 km/h (4 Bft) 95,74 %
24.03.2017 21:26 9,8 C 9,4 C 6,7 C 69 % 0 lf 1029,2 hPa 0,0 l/m 0 min 0 min 1 W/m 20,9 km/h (4 Bft) 97,87 %
24.03.2017 21:28 9,8 C 9,4 C 6,7 C 69 % 0 lf 1029,2 hPa 0,0 l/m 0 min 0 min 0 W/m 18,8 km/h (3 Bft) 100,00 %
24.03.2017 21:30 9,8 C 9,4 C 6,7 C 69 % 0 lf 1029,2 hPa 0,0 l/m 0 min 0 min 0 W/m 23,0 km/h (4 Bft) 100,00 %
24.03.2017 21:32 9,8 C 9,4 C 6,7 C 69 % 0 lf 1029,2 hPa 0,0 l/m 0 min 0 min 1 W/m 20,9 km/h (4 Bft) 97,87 %
24.03.2017 21:34 9,7 C 9,4 C 7,2 C 69 % 0 lf 1029,2 hPa 0,0 l/m 0 min 0 min 2 W/m 29,3 km/h (5 Bft) 97,83 %
24.03.2017 21:36 9,7 C 9,4 C 7,2 C 69 % 0 lf 1029,2 hPa 0,0 l/m 0 min 0 min 2 W/m 23,0 km/h (4 Bft) 97,87 %
24.03.2017 21:38 9,7 C 9,4 C 7,2 C 69 % 0 lf 1029,3 hPa 0,0 l/m 0 min 0 min 2 W/m 23,0 km/h (4 Bft) 100,00 %
24.03.2017 21:40 9,7 C 9,4 C 7,2 C 69 % 0 lf 1029,2 hPa 0,0 l/m 0 min 0 min 2 W/m 27,2 km/h (4 Bft) 100,00 %
24.03.2017 21:42 9,7 C 9,4 C 7,2 C 69 % 0 lf 1029,3 hPa 0,0 l/m 0 min 0 min 2 W/m 23,0 km/h (4 Bft) 95,74 %
24.03.2017 21:44 9,7 C 9,4 C 7,2 C 69 % 0 lf 1029,4 hPa 0,0 l/m 0 min 0 min 2 W/m 27,2 km/h (4 Bft) 97,87 %
24.03.2017 21:46 9,6 C 9,4 C 7,2 C 69 % 0 lf 1029,3 hPa 0,0 l/m 0 min 0 min 4 W/m 16,7 km/h (3 Bft) 95,65 %
24.03.2017 21:48 9,6 C 9,4 C 7,2 C 69 % 0 lf 1029,4 hPa 0,0 l/m 0 min 0 min 2 W/m 20,9 km/h (4 Bft) 100,00 %
24.03.2017 21:50 9,6 C 9,4 C 7,2 C 69 % 0 lf 1029,3 hPa 0,0 l/m 0 min 0 min 2 W/m 25,1 km/h (4 Bft) 95,74 %
24.03.2017 21:52 9,6 C 9,4 C 7,2 C 69 % 0 lf 1029,4 hPa 0,0 l/m 0 min 0 min 2 W/m 23,0 km/h (4 Bft) 97,87 %
24.03.2017 21:54 9,6 C 9,4 C 7,2 C 69 % 0 lf 1029,4 hPa 0,0 l/m 0 min 0 min 2 W/m 18,8 km/h (3 Bft) 97,87 %
24.03.2017 21:56 9,6 C 9,4 C 6,7 C 69 % 0 lf 1029,4 hPa 0,0 l/m 0 min 0 min 2 W/m 18,8 km/h (3 Bft) 95,74 %
24.03.2017 21:58 9,6 C 9,4 C 6,7 C 69 % 0 lf 1029,5 hPa 0,0 l/m 0 min 0 min 2 W/m 33,5 km/h (5 Bft) 97,83 %
24.03.2017 22:00 9,5 C 9,4 C 6,7 C 69 % 0 lf 1029,6 hPa 0,0 l/m 0 min 0 min 2 W/m 23,0 km/h (4 Bft) 95,74 %
24.03.2017 22:02 9,5 C 8,9 C 6,7 C 69 % 0 lf 1029,6 hPa 0,0 l/m 0 min 0 min 2 W/m 25,1 km/h (4 Bft) 89,36 %
24.03.2017 22:04 9,5 C 8,9 C 6,7 C 69 % 0 lf 1029,6 hPa 0,0 l/m 0 min 0 min 0 W/m 23,0 km/h (4 Bft) 95,74 %
24.03.2017 22:06 9,4 C 8,9 C 6,7 C 69 % 0 lf 1029,6 hPa 0,0 l/m 0 min 0 min 0 W/m 20,9 km/h (4 Bft) 95,74 %
24.03.2017 22:08 9,4 C 8,9 C 6,7 C 69 % 0 lf 1029,6 hPa 0,0 l/m 0 min 0 min 0 W/m 27,2 km/h (4 Bft) 93,62 %
24.03.2017 22:10 9,4 C 8,9 C 6,7 C 69 % 0 lf 1029,6 hPa 0,0 l/m 0 min 0 min 0 W/m 20,9 km/h (4 Bft) 91,30 %
24.03.2017 22:12 9,4 C 8,9 C 6,7 C 70 % 0 lf 1029,7 hPa 0,0 l/m 0 min 0 min 0 W/m 20,9 km/h (4 Bft) 93,62 %
24.03.2017 22:14 9,4 C 8,9 C 6,7 C 70 % 0 lf 1029,7 hPa 0,0 l/m 0 min 0 min 2 W/m 25,1 km/h (4 Bft) 93,62 %
24.03.2017 22:16 9,3 C 8,9 C 6,7 C 70 % 0 lf 1029,7 hPa 0,0 l/m 0 min 0 min 1 W/m 27,2 km/h (4 Bft) 95,74 %
24.03.2017 22:18 9,3 C 8,9 C 6,7 C 70 % 0 lf 1029,8 hPa 0,0 l/m 0 min 0 min 0 W/m 31,4 km/h (5 Bft) 91,49 %
24.03.2017 22:20 9,3 C 8,9 C 6,7 C 70 % 0 lf 1029,7 hPa 0,0 l/m 0 min 0 min 2 W/m 23,0 km/h (4 Bft) 91,49 %
24.03.2017 22:22 9,2 C 8,9 C 6,7 C 70 % 0 lf 1029,8 hPa 0,0 l/m 0 min 0 min 2 W/m 25,1 km/h (4 Bft) 95,65 %
24.03.2017 22:24 9,2 C 8,9 C 6,7 C 70 % 0 lf 1029,8 hPa 0,0 l/m 0 min 0 min 2 W/m 23,0 km/h (4 Bft) 89,36 %
24.03.2017 22:26 9,2 C 8,9 C 6,7 C 70 % 0 lf 1029,8 hPa 0,0 l/m 0 min 0 min 3 W/m 29,3 km/h (5 Bft) 95,74 %
24.03.2017 22:28 9,2 C 8,9 C 6,7 C 70 % 0 lf 1029,8 hPa 0,0 l/m 0 min 0 min 0 W/m 27,2 km/h (4 Bft) 89,36 %
24.03.2017 22:30 9,2 C 8,9 C 6,7 C 70 % 0 lf 1029,7 hPa 0,0 l/m 0 min 0 min 1 W/m 20,9 km/h (4 Bft) 91,49 %
24.03.2017 22:32 9,2 C 8,9 C 6,1 C 70 % 0 lf 1029,8 hPa 0,0 l/m 0 min 0 min 0 W/m 23,0 km/h (4 Bft) 93,48 %
24.03.2017 22:34 9,1 C 8,9 C 6,1 C 70 % 0 lf 1029,7 hPa 0,0 l/m 0 min 0 min 0 W/m 18,8 km/h (3 Bft) 93,62 %
24.03.2017 22:36 9,1 C 8,9 C 6,1 C 71 % 0 lf 1029,8 hPa 0,0 l/m 0 min 0 min 0 W/m 18,8 km/h (3 Bft) 87,23 %
24.03.2017 22:38 9,1 C 8,9 C 6,1 C 71 % 0 lf 1029,8 hPa 0,0 l/m 0 min 0 min 0 W/m 18,8 km/h (3 Bft) 91,49 %
24.03.2017 22:40 9,1 C 8,9 C 6,7 C 71 % 0 lf 1029,8 hPa 0,0 l/m 0 min 0 min 0 W/m 20,9 km/h (4 Bft) 91,49 %
24.03.2017 22:42 9,1 C 8,9 C 6,7 C 71 % 0 lf 1029,8 hPa 0,0 l/m 0 min 0 min 0 W/m 20,9 km/h (4 Bft) 93,62 %
24.03.2017 22:44 9,0 C 8,9 C 6,1 C 71 % 0 lf 1029,8 hPa 0,0 l/m 0 min 0 min 0 W/m 25,1 km/h (4 Bft) 93,62 %
24.03.2017 22:46 9,0 C 8,9 C 6,1 C 71 % 0 lf 1029,8 hPa 0,0 l/m 0 min 0 min 0 W/m 16,7 km/h (3 Bft) 91,30 %
24.03.2017 22:48 9,0 C 8,9 C 6,1 C 71 % 0 lf 1029,8 hPa 0,0 l/m 0 min 0 min 0 W/m 20,9 km/h (4 Bft) 93,62 %
24.03.2017 22:50 9,0 C 8,3 C 5,6 C 71 % 0 lf 1029,9 hPa 0,0 l/m 0 min 0 min 2 W/m 18,8 km/h (3 Bft) 89,36 %
24.03.2017 22:52 8,9 C 8,9 C 5,6 C 71 % 0 lf 1029,9 hPa 0,0 l/m 0 min 0 min 0 W/m 20,9 km/h (4 Bft) 89,36 %
24.03.2017 22:54 8,9 C 8,3 C 6,1 C 71 % 0 lf 1029,9 hPa 0,0 l/m 0 min 0 min 0 W/m 20,9 km/h (4 Bft) 91,49 %
24.03.2017 22:56 8,9 C 8,3 C 6,1 C 71 % 0 lf 1029,8 hPa 0,0 l/m 0 min 0 min 0 W/m 20,9 km/h (4 Bft) 91,30 %
24.03.2017 22:58 8,9 C 8,3 C 5,6 C 71 % 0 lf 1029,9 hPa 0,0 l/m 0 min 0 min 0 W/m 18,8 km/h (3 Bft) 93,62 %
24.03.2017 23:00 8,8 C 8,3 C 5,6 C 71 % 0 lf 1029,8 hPa 0,0 l/m 0 min 0 min 0 W/m 20,9 km/h (4 Bft) 91,49 %
24.03.2017 23:02 8,8 C 8,3 C 5,6 C 71 % 0 lf 1029,8 hPa 0,0 l/m 0 min 0 min 0 W/m 16,7 km/h (3 Bft) 91,49 %
24.03.2017 23:04 8,8 C 8,3 C 5,6 C 71 % 0 lf 1029,8 hPa 0,0 l/m 0 min 0 min 0 W/m 12,6 km/h (3 Bft) 89,36 %
24.03.2017 23:06 8,8 C 8,3 C 5,6 C 71 % 0 lf 1029,8 hPa 0,0 l/m 0 min 0 min 0 W/m 18,8 km/h (3 Bft) 91,49 %
24.03.2017 23:08 8,7 C 8,3 C 5,6 C 72 % 0 lf 1029,8 hPa 0,0 l/m 0 min 0 min 0 W/m 20,9 km/h (4 Bft) 93,48 %
24.03.2017 23:10 8,7 C 8,3 C 5,6 C 72 % 0 lf 1029,8 hPa 0,0 l/m 0 min 0 min 0 W/m 18,8 km/h (3 Bft) 93,62 %
24.03.2017 23:12 8,7 C 7,8 C 5,6 C 72 % 0 lf 1029,8 hPa 0,0 l/m 0 min 0 min 0 W/m 10,5 km/h (2 Bft) 93,62 %
24.03.2017 23:14 8,6 C 8,3 C 5,6 C 72 % 0 lf 1029,8 hPa 0,0 l/m 0 min 0 min 0 W/m 16,7 km/h (3 Bft) 95,74 %
24.03.2017 23:16 8,6 C 8,3 C 5,6 C 72 % 0 lf 1029,8 hPa 0,0 l/m 0 min 0 min 0 W/m 20,9 km/h (4 Bft) 97,87 %
24.03.2017 23:18 8,6 C 8,3 C 5,6 C 72 % 0 lf 1029,8 hPa 0,0 l/m 0 min 0 min 0 W/m 14,6 km/h (3 Bft) 93,62 %
24.03.2017 23:20 8,6 C 8,3 C 5,6 C 72 % 0 lf 1029,8 hPa 0,0 l/m 0 min 0 min 0 W/m 16,7 km/h (3 Bft) 97,83 %
24.03.2017 23:22 8,5 C 7,8 C 5,0 C 72 % 0 lf 1029,8 hPa 0,0 l/m 0 min 0 min 0 W/m 16,7 km/h (3 Bft) 100,00 %
24.03.2017 23:24 8,4 C 7,8 C 5,0 C 73 % 0 lf 1029,8 hPa 0,0 l/m 0 min 0 min 0 W/m 18,8 km/h (3 Bft) 95,74 %
24.03.2017 23:26 8,4 C 7,8 C 5,0 C 73 % 0 lf 1029,8 hPa 0,0 l/m 0 min 0 min 1 W/m 16,7 km/h (3 Bft) 100,00 %
24.03.2017 23:28 8,4 C 7,8 C 5,0 C 73 % 0 lf 1029,8 hPa 0,0 l/m 0 min 0 min 3 W/m 18,8 km/h (3 Bft) 100,00 %
24.03.2017 23:30 8,3 C 7,8 C 5,0 C 73 % 0 lf 1029,8 hPa 0,0 l/m 0 min 0 min 0 W/m 16,7 km/h (3 Bft) 95,74 %
24.03.2017 23:32 8,3 C 7,2 C 5,0 C 73 % 0 lf 1029,8 hPa 0,0 l/m 0 min 0 min 0 W/m 14,6 km/h (3 Bft) 97,83 %
24.03.2017 23:34 8,3 C 7,2 C 5,0 C 73 % 0 lf 1029,8 hPa 0,0 l/m 0 min 0 min 0 W/m 12,6 km/h (3 Bft) 100,00 %
24.03.2017 23:36 8,2 C 7,2 C 4,4 C 73 % 0 lf 1029,8 hPa 0,0 l/m 0 min 0 min 0 W/m 10,5 km/h (2 Bft) 97,87 %
24.03.2017 23:38 8,2 C 7,2 C 4,4 C 73 % 0 lf 1029,9 hPa 0,0 l/m 0 min 0 min 0 W/m 16,7 km/h (3 Bft) 100,00 %
24.03.2017 23:40 8,2 C 7,2 C 4,4 C 73 % 0 lf 1029,9 hPa 0,0 l/m 0 min 0 min 0 W/m 10,5 km/h (2 Bft) 97,87 %
24.03.2017 23:42 8,1 C 7,2 C 4,4 C 74 % 0 lf 1029,9 hPa 0,0 l/m 0 min 0 min 0 W/m 10,5 km/h (2 Bft) 100,00 %
24.03.2017 23:44 8,1 C 7,2 C 4,4 C 74 % 0 lf 1029,9 hPa 0,0 l/m 0 min 0 min 2 W/m 10,5 km/h (2 Bft) 97,87 %
24.03.2017 23:46 8,0 C 7,2 C 3,9 C 74 % 0 lf 1029,9 hPa 0,0 l/m 0 min 0 min 1 W/m 12,6 km/h (3 Bft) 100,00 %
24.03.2017 23:48 7,9 C 7,2 C 4,4 C 74 % 0 lf 1030,0 hPa 0,0 l/m 0 min 0 min 2 W/m 16,7 km/h (3 Bft) 100,00 %
24.03.2017 23:50 7,9 C 7,2 C 3,9 C 74 % 0 lf 1030,0 hPa 0,0 l/m 0 min 0 min 0 W/m 14,6 km/h (3 Bft) 97,87 %
24.03.2017 23:52 7,9 C 7,2 C 4,4 C 74 % 0 lf 1030,0 hPa 0,0 l/m 0 min 0 min 0 W/m 10,5 km/h (2 Bft) 95,74 %
24.03.2017 23:54 7,8 C 7,2 C 4,4 C 74 % 0 lf 1030,0 hPa 0,0 l/m 0 min 0 min 0 W/m 12,6 km/h (3 Bft) 97,83 %
24.03.2017 23:56 7,8 C 7,2 C 4,4 C 74 % 0 lf 1030,0 hPa 0,0 l/m 0 min 0 min 0 W/m 20,9 km/h (4 Bft) 95,74 %
24.03.2017 23:58 7,8 C 7,2 C 4,4 C 75 % 0 lf 1030,0 hPa 0,0 l/m 0 min 0 min 0 W/m 16,7 km/h (3 Bft) 95,74 %
_ Min-Zeit 06:52 03:58 03:28 16:06 00:00 00:00 - - - - 04:24 05:18
Minimum _ 5,1 C 5,0 C 3,3 C 55 % 0 lf 1021,0 hPa - - - - 8,4 km/h (2 Bft) 87,23 %
_ Max-Zeit 15:52 12:56 14:30 05:02 04:00 23:48 00:00 06:44 00:00 11:36 08:06 00:28
Maximum _ 16,3 C 23,9 C 18,3 C 94 % 1 lf 1030,0 hPa 0,0 l/m 2 min 0 min 878 W/m 37,7 km/h
O (5 Bft)
100,00 %
Durchschnitt _ 9,9 C 12,0 C 8,4 C 76 % 0 lf 1026,1 hPa #0,0 l/m #10:52 h #0 min. 261 W/m 21,1 km/h (4 Bft) 95,93 %
© 2017 W. Hausmann